| time (UTC) | temp C | wind direction | speed KPH | gust KPH | rain 1hr cm | rain 24hr cm | rain mn cm | humidity % | barometer mb |
| 20260504080743 | 14 | 329 | 0.0 | 0.0 | 0.00 | 0.00 | 0.00 | 78 | 1014.1 |
| 20260504080657 | 14 | 329 | 0.0 | 0.0 | 0.00 | 0.00 | 0.00 | 78 | 1014.1 |
| 20260504080533 | 14 | 329 | 0.0 | 0.0 | 0.00 | 0.00 | 0.00 | 78 | 1014.1 |
| 20260504080436 | 14 | 329 | 0.0 | 0.0 | 0.00 | 0.00 | 0.00 | 78 | 1014.1 |
| 20260504080349 | 14 | 329 | 0.0 | 0.0 | 0.00 | 0.00 | 0.00 | 78 | 1014.1 |
| 20260504080305 | 14 | 329 | 0.0 | 0.0 | 0.00 | 0.00 | 0.00 | 78 | 1014.1 |
| 20260504080146 | 14 | 329 | 0.0 | 0.0 | 0.00 | 0.00 | 0.00 | 78 | 1014.1 |
| 20260504070405 | 15 | 329 | 0.0 | 1.6 | 0.00 | 0.00 | 0.00 | 74 | 1014.6 |
| 20260504070245 | 15 | 329 | 0.0 | 1.6 | 0.00 | 0.00 | 0.00 | 74 | 1014.6 |
| 20260504070159 | 15 | 329 | 0.0 | 1.6 | 0.00 | 0.00 | 0.00 | 74 | 1014.6 |
| 20260504060212 | 16 | 293 | 1.6 | 1.6 | 0.00 | 0.00 | 0.00 | 73 | 1014.9 |
| 20260504050658 | 16 | 279 | 0.0 | 0.0 | 0.00 | 0.00 | 0.00 | 69 | 1015.2 |
| 20260504050612 | 16 | 279 | 0.0 | 0.0 | 0.00 | 0.00 | 0.00 | 69 | 1015.2 |
| 20260504050445 | 16 | 279 | 0.0 | 0.0 | 0.00 | 0.00 | 0.00 | 69 | 1015.2 |
| 20260504050345 | 16 | 279 | 0.0 | 0.0 | 0.00 | 0.00 | 0.00 | 69 | 1015.2 |
| 20260504050242 | 16 | 279 | 0.0 | 1.6 | 0.00 | 0.00 | 0.00 | 69 | 1015.2 |
| 20260504050140 | 16 | 279 | 0.0 | 1.6 | 0.00 | 0.00 | 0.00 | 69 | 1015.2 |
| 20260504045943 | 16 | 279 | 0.0 | 1.6 | 0.00 | 0.00 | 0.00 | 69 | 1015.1 |
| 20260504045840 | 16 | 279 | 0.0 | 3.2 | 0.00 | 0.00 | 0.00 | 69 | 1015.1 |
| 20260504045754 | 16 | 279 | 0.0 | 3.2 | 0.00 | 0.00 | 0.00 | 69 | 1015.1 |
| 20260504045709 | 16 | 279 | 0.0 | 3.2 | 0.00 | 0.00 | 0.00 | 69 | 1015.1 |
| 20260504045547 | 16 | 279 | 0.0 | 4.8 | 0.00 | 0.00 | 0.00 | 69 | 1015.1 |
| 20260504045442 | 16 | 279 | 0.0 | 4.8 | 0.00 | 0.00 | 0.00 | 69 | 1015.1 |
| 20260504045357 | 16 | 279 | 0.0 | 4.8 | 0.00 | 0.00 | 0.00 | 69 | 1015.1 |
| 20260504045313 | 16 | 279 | 0.0 | 4.8 | 0.00 | 0.00 | 0.00 | 69 | 1015.1 |
| 20260504045206 | 16 | 279 | 1.6 | 4.8 | 0.00 | 0.00 | 0.00 | 69 | 1015.1 |
| 20260504045106 | 16 | 279 | 1.6 | 4.8 | 0.00 | 0.00 | 0.00 | 69 | 1015.1 |
| 20260504044945 | 16 | 279 | 3.2 | 4.8 | 0.00 | 0.00 | 0.00 | 69 | 1015.1 |
| 20260504044840 | 16 | 279 | 3.2 | 4.8 | 0.00 | 0.00 | 0.00 | 70 | 1015.1 |
| 20260504044754 | 16 | 279 | 3.2 | 4.8 | 0.00 | 0.00 | 0.00 | 70 | 1015.1 |
| 20260504044639 | 16 | 279 | 3.2 | 4.8 | 0.00 | 0.00 | 0.00 | 70 | 1015.1 |
| 20260504044552 | 16 | 281 | 3.2 | 4.8 | 0.00 | 0.00 | 0.00 | 70 | 1015.1 |
| 20260504044446 | 16 | 271 | 1.6 | 3.2 | 0.00 | 0.00 | 0.00 | 70 | 1015.1 |
| 20260504044331 | 16 | 271 | 1.6 | 3.2 | 0.00 | 0.00 | 0.00 | 70 | 1015.1 |
| 20260504044248 | 16 | 271 | 1.6 | 3.2 | 0.00 | 0.00 | 0.00 | 70 | 1015.1 |
| 20260504044145 | 16 | 271 | 3.2 | 3.2 | 0.00 | 0.00 | 0.00 | 70 | 1015.1 |
| 20260504044037 | 16 | 271 | 1.6 | 3.2 | 0.00 | 0.00 | 0.00 | 70 | 1015.1 |
| 20260504043950 | 16 | 271 | 1.6 | 3.2 | 0.00 | 0.00 | 0.00 | 70 | 1015.1 |
| 20260504043832 | 16 | 267 | 1.6 | 3.2 | 0.00 | 0.00 | 0.00 | 70 | 1015.1 |
| 20260504043748 | 16 | 285 | 1.6 | 3.2 | 0.00 | 0.00 | 0.00 | 71 | 1015.1 |
| 20260504043701 | 16 | 285 | 1.6 | 3.2 | 0.00 | 0.00 | 0.00 | 71 | 1015.1 |
| 20260504043614 | 16 | 285 | 1.6 | 3.2 | 0.00 | 0.00 | 0.00 | 71 | 1015.1 |
| 20260504043527 | 16 | 285 | 1.6 | 4.8 | 0.00 | 0.00 | 0.00 | 71 | 1015.1 |
| 20260504043428 | 16 | 285 | 1.6 | 4.8 | 0.00 | 0.00 | 0.00 | 71 | 1015.1 |
| 20260504043322 | 16 | 285 | 1.6 | 4.8 | 0.00 | 0.00 | 0.00 | 71 | 1015.1 |
| 20260504043143 | 16 | 285 | 1.6 | 4.8 | 0.00 | 0.00 | 0.00 | 71 | 1015.1 |
| 20260504043036 | 16 | 285 | 1.6 | 4.8 | 0.00 | 0.00 | 0.00 | 71 | 1015.1 |
| 20260504042933 | 16 | 285 | 1.6 | 4.8 | 0.00 | 0.00 | 0.00 | 71 | 1015.2 |
| 20260504042851 | 16 | 285 | 1.6 | 4.8 | 0.00 | 0.00 | 0.00 | 71 | 1015.2 |
| 20260504042804 | 16 | 285 | 3.2 | 4.8 | 0.00 | 0.00 | 0.00 | 71 | 1015.2 |
| 20260504042646 | 16 | 285 | 3.2 | 4.8 | 0.00 | 0.00 | 0.00 | 71 | 1015.2 |
| 20260504042547 | 16 | 285 | 3.2 | 4.8 | 0.00 | 0.00 | 0.00 | 72 | 1015.2 |
| 20260504042504 | 16 | 284 | 3.2 | 4.8 | 0.00 | 0.00 | 0.00 | 72 | 1015.2 |
| 20260504042341 | 16 | 282 | 3.2 | 4.8 | 0.00 | 0.00 | 0.00 | 72 | 1015.2 |
| 20260504042235 | 16 | 282 | 3.2 | 4.8 | 0.00 | 0.00 | 0.00 | 72 | 1015.2 |
| 20260504042131 | 16 | 277 | 3.2 | 4.8 | 0.00 | 0.00 | 0.00 | 72 | 1015.2 |
| 20260504042051 | 16 | 277 | 3.2 | 4.8 | 0.00 | 0.00 | 0.00 | 72 | 1015.2 |
| 20260504041935 | 16 | 277 | 3.2 | 4.8 | 0.00 | 0.00 | 0.00 | 72 | 1015.2 |
| 20260504041850 | 16 | 272 | 3.2 | 4.8 | 0.00 | 0.00 | 0.00 | 72 | 1015.2 |
| 20260504041804 | 16 | 272 | 3.2 | 4.8 | 0.00 | 0.00 | 0.00 | 73 | 1015.2 |
| 20260504041704 | 16 | 272 | 1.6 | 4.8 | 0.00 | 0.00 | 0.00 | 73 | 1015.2 |
| 20260504041556 | 16 | 272 | 1.6 | 3.2 | 0.00 | 0.00 | 0.00 | 73 | 1015.2 |
| 20260504041451 | 16 | 272 | 1.6 | 3.2 | 0.00 | 0.00 | 0.00 | 73 | 1014.8 |
| 20260504041405 | 16 | 270 | 1.6 | 3.2 | 0.00 | 0.00 | 0.00 | 73 | 1014.8 |
| 20260504041256 | 16 | 250 | 0.0 | 3.2 | 0.00 | 0.00 | 0.00 | 73 | 1014.8 |
| 20260504041149 | 16 | 250 | 1.6 | 3.2 | 0.00 | 0.00 | 0.00 | 73 | 1014.8 |
| 20260504041101 | 16 | 250 | 0.0 | 3.2 | 0.00 | 0.00 | 0.00 | 73 | 1014.8 |
| 20260504041016 | 16 | 250 | 1.6 | 3.2 | 0.00 | 0.00 | 0.00 | 73 | 1014.8 |
| 20260504040833 | 16 | 250 | 1.6 | 3.2 | 0.00 | 0.00 | 0.00 | 73 | 1014.8 |
| 20260504040749 | 16 | 250 | 0.0 | 3.2 | 0.00 | 0.00 | 0.00 | 73 | 1014.8 |
| 20260504040642 | 16 | 250 | 1.6 | 3.2 | 0.00 | 0.00 | 0.00 | 73 | 1014.8 |
| 20260504040544 | 16 | 250 | 1.6 | 3.2 | 0.00 | 0.00 | 0.00 | 73 | 1014.8 |
| 20260504040450 | 16 | 250 | 1.6 | 3.2 | 0.00 | 0.00 | 0.00 | 73 | 1014.8 |
| 20260504040401 | 16 | 250 | 0.0 | 3.2 | 0.00 | 0.00 | 0.00 | 74 | 1014.8 |
| 20260504040258 | 16 | 250 | 0.0 | 3.2 | 0.00 | 0.00 | 0.00 | 74 | 1014.8 |
| 20260504040149 | 16 | 250 | 1.6 | 3.2 | 0.00 | 0.00 | 0.00 | 74 | 1014.8 |
| 20260504040047 | 16 | 250 | 1.6 | 3.2 | 0.00 | 0.00 | 0.00 | 74 | 1014.8 |
| 20260504040000 | 16 | 250 | 1.6 | 3.2 | 0.00 | 0.00 | 0.00 | 74 | 1014.8 |
| 20260504035844 | 16 | 250 | 1.6 | 3.2 | 0.00 | 0.00 | 0.00 | 74 | 1014.8 |
| 20260504035736 | 16 | 250 | 1.6 | 3.2 | 0.00 | 0.00 | 0.00 | 74 | 1014.8 |
| 20260504035640 | 16 | 250 | 1.6 | 3.2 | 0.00 | 0.00 | 0.00 | 74 | 1014.8 |
| 20260504035554 | 16 | 250 | 1.6 | 1.6 | 0.00 | 0.00 | 0.00 | 74 | 1014.8 |
| 20260504035507 | 16 | 250 | 0.0 | 1.6 | 0.00 | 0.00 | 0.00 | 74 | 1014.8 |
| 20260504035408 | 16 | 250 | 0.0 | 1.6 | 0.00 | 0.00 | 0.00 | 74 | 1014.8 |
| 20260504035240 | 16 | 250 | 0.0 | 1.6 | 0.00 | 0.00 | 0.00 | 74 | 1014.8 |
| 20260504035137 | 16 | 250 | 0.0 | 3.2 | 0.00 | 0.00 | 0.00 | 74 | 1014.8 |
| 20260504035052 | 16 | 250 | 0.0 | 3.2 | 0.00 | 0.00 | 0.00 | 74 | 1014.8 |
| 20260504034936 | 16 | 250 | 0.0 | 3.2 | 0.00 | 0.00 | 0.00 | 74 | 1014.8 |
| 20260504034833 | 16 | 250 | 0.0 | 3.2 | 0.00 | 0.00 | 0.00 | 74 | 1014.8 |
| 20260504034728 | 16 | 250 | 0.0 | 3.2 | 0.00 | 0.00 | 0.00 | 73 | 1014.8 |
| 20260504034631 | 16 | 250 | 0.0 | 3.2 | 0.00 | 0.00 | 0.00 | 74 | 1014.8 |
| 20260504034252 | 16 | 250 | 1.6 | 3.2 | 0.00 | 0.00 | 0.00 | 73 | 1014.8 |
| 20260504034146 | 16 | 250 | 0.0 | 1.6 | 0.00 | 0.00 | 0.00 | 73 | 1014.8 |
| 20260504034043 | 16 | 250 | 0.0 | 1.6 | 0.00 | 0.00 | 0.00 | 73 | 1014.8 |
| 20260504033956 | 16 | 250 | 0.0 | 1.6 | 0.00 | 0.00 | 0.00 | 73 | 1014.8 |
| 20260504033853 | 17 | 250 | 0.0 | 1.6 | 0.00 | 0.00 | 0.00 | 73 | 1014.8 |
| 20260504033735 | 17 | 250 | 0.0 | 3.2 | 0.00 | 0.00 | 0.00 | 73 | 1014.8 |
| 20260504033633 | 17 | 250 | 0.0 | 3.2 | 0.00 | 0.00 | 0.00 | 73 | 1014.8 |
| 20260504033550 | 17 | 250 | 0.0 | 3.2 | 0.00 | 0.00 | 0.00 | 73 | 1014.8 |
| 20260504033435 | 17 | 250 | 0.0 | 3.2 | 0.00 | 0.00 | 0.00 | 73 | 1014.8 |
| 20260504033352 | 17 | 250 | 0.0 | 3.2 | 0.00 | 0.00 | 0.00 | 73 | 1014.8 |
| 20260504033247 | 17 | 250 | 1.6 | 3.2 | 0.00 | 0.00 | 0.00 | 73 | 1014.8 |
| 20260504033201 | 17 | 250 | 1.6 | 3.2 | 0.00 | 0.00 | 0.00 | 73 | 1014.8 |
| 20260504033036 | 17 | 250 | 1.6 | 3.2 | 0.00 | 0.00 | 0.00 | 73 | 1014.8 |
| 20260504032950 | 17 | 250 | 1.6 | 3.2 | 0.00 | 0.00 | 0.00 | 73 | 1014.9 |
| 20260504032903 | 17 | 250 | 1.6 | 3.2 | 0.00 | 0.00 | 0.00 | 73 | 1014.9 |
| 20260504032749 | 17 | 250 | 1.6 | 3.2 | 0.00 | 0.00 | 0.00 | 73 | 1014.9 |
| 20260504032646 | 17 | 250 | 1.6 | 3.2 | 0.00 | 0.00 | 0.00 | 73 | 1014.9 |
| 20260504032600 | 17 | 250 | 1.6 | 1.6 | 0.00 | 0.00 | 0.00 | 73 | 1014.9 |
| 20260504032513 | 17 | 250 | 0.0 | 1.6 | 0.00 | 0.00 | 0.00 | 73 | 1014.9 |
| 20260504032344 | 17 | 250 | 0.0 | 1.6 | 0.00 | 0.00 | 0.00 | 72 | 1014.9 |
| 20260504032303 | 17 | 250 | 0.0 | 1.6 | 0.00 | 0.00 | 0.00 | 72 | 1014.9 |
| 20260504032145 | 17 | 250 | 0.0 | 1.6 | 0.00 | 0.00 | 0.00 | 72 | 1014.9 |
| 20260504032042 | 17 | 250 | 0.0 | 1.6 | 0.00 | 0.00 | 0.00 | 72 | 1014.9 |
| 20260504031956 | 17 | 250 | 0.0 | 1.6 | 0.00 | 0.00 | 0.00 | 72 | 1014.9 |
| 20260504031836 | 17 | 250 | 0.0 | 1.6 | 0.00 | 0.00 | 0.00 | 72 | 1014.9 |
| 20260504031753 | 17 | 250 | 0.0 | 1.6 | 0.00 | 0.00 | 0.00 | 72 | 1014.9 |
| 20260504031709 | 17 | 250 | 0.0 | 1.6 | 0.00 | 0.00 | 0.00 | 72 | 1014.9 |
| 20260504031536 | 17 | 250 | 1.6 | 1.6 | 0.00 | 0.00 | 0.00 | 72 | 1014.9 |
| 20260504031449 | 17 | 250 | 0.0 | 1.6 | 0.00 | 0.00 | 0.00 | 72 | 1014.8 |
| 20260504031345 | 17 | 250 | 0.0 | 1.6 | 0.00 | 0.00 | 0.00 | 72 | 1014.8 |
| 20260504031258 | 17 | 250 | 0.0 | 1.6 | 0.00 | 0.00 | 0.00 | 72 | 1014.8 |
| 20260504031141 | 17 | 250 | 0.0 | 1.6 | 0.00 | 0.00 | 0.00 | 72 | 1014.8 |
| 20260504031037 | 17 | 250 | 1.6 | 1.6 | 0.00 | 0.00 | 0.00 | 72 | 1014.8 |
| 20260504030938 | 17 | 250 | 1.6 | 1.6 | 0.00 | 0.00 | 0.00 | 72 | 1014.8 |
| 20260504030856 | 17 | 250 | 1.6 | 1.6 | 0.00 | 0.00 | 0.00 | 72 | 1014.8 |
| 20260504030741 | 17 | 250 | 1.6 | 1.6 | 0.00 | 0.00 | 0.00 | 72 | 1014.8 |
| 20260504030637 | 17 | 250 | 0.0 | 1.6 | 0.00 | 0.00 | 0.00 | 72 | 1014.8 |
| 20260504030550 | 17 | 250 | 0.0 | 1.6 | 0.00 | 0.00 | 0.00 | 72 | 1014.8 |
| 20260504030503 | 17 | 250 | 0.0 | 1.6 | 0.00 | 0.00 | 0.00 | 72 | 1014.8 |
| 20260504030416 | 17 | 250 | 0.0 | 1.6 | 0.00 | 0.00 | 0.00 | 72 | 1014.8 |
| 20260504030311 | 17 | 250 | 0.0 | 1.6 | 0.00 | 0.00 | 0.00 | 71 | 1014.8 |
| 20260504030207 | 17 | 250 | 0.0 | 1.6 | 0.00 | 0.00 | 0.00 | 71 | 1014.8 |
| 20260504030104 | 17 | 250 | 0.0 | 1.6 | 0.00 | 0.00 | 0.00 | 71 | 1014.8 |
| 20260504025959 | 17 | 250 | 0.0 | 1.6 | 0.00 | 0.00 | 0.00 | 71 | 1014.8 |
| 20260504025835 | 17 | 250 | 0.0 | 1.6 | 0.00 | 0.00 | 0.00 | 71 | 1014.8 |
| 20260504025749 | 17 | 250 | 0.0 | 1.6 | 0.00 | 0.00 | 0.00 | 71 | 1014.8 |
| 20260504025705 | 17 | 250 | 0.0 | 1.6 | 0.00 | 0.00 | 0.00 | 71 | 1014.8 |
| 20260504025617 | 17 | 250 | 0.0 | 1.6 | 0.00 | 0.00 | 0.00 | 71 | 1014.8 |
| 20260504025441 | 17 | 250 | 0.0 | 0.0 | 0.00 | 0.00 | 0.00 | 71 | 1014.8 |
| 20260504025335 | 17 | 250 | 0.0 | 0.0 | 0.00 | 0.00 | 0.00 | 71 | 1014.8 |
| 20260504025248 | 17 | 250 | 0.0 | 0.0 | 0.00 | 0.00 | 0.00 | 71 | 1014.8 |
| 20260504025134 | 17 | 250 | 0.0 | 1.6 | 0.00 | 0.00 | 0.00 | 71 | 1014.8 |
| 20260504025051 | 17 | 250 | 0.0 | 1.6 | 0.00 | 0.00 | 0.00 | 71 | 1014.8 |
| 20260504025005 | 17 | 250 | 0.0 | 1.6 | 0.00 | 0.00 | 0.00 | 71 | 1014.8 |
| 20260504024840 | 17 | 250 | 0.0 | 1.6 | 0.00 | 0.00 | 0.00 | 71 | 1014.8 |
| 20260504024757 | 17 | 250 | 0.0 | 1.6 | 0.00 | 0.00 | 0.00 | 71 | 1014.8 |
| 20260504024649 | 17 | 250 | 0.0 | 1.6 | 0.00 | 0.00 | 0.00 | 71 | 1014.8 |
| 20260504024602 | 17 | 250 | 0.0 | 1.6 | 0.00 | 0.00 | 0.00 | 71 | 1014.8 |
| 20260504024454 | 17 | 250 | 0.0 | 1.6 | 0.00 | 0.00 | 0.00 | 71 | 1014.7 |
| 20260504024406 | 17 | 250 | 0.0 | 1.6 | 0.00 | 0.00 | 0.00 | 71 | 1014.7 |
| 20260504024320 | 17 | 250 | 0.0 | 1.6 | 0.00 | 0.00 | 0.00 | 70 | 1014.7 |
| 20260504024233 | 17 | 250 | 0.0 | 1.6 | 0.00 | 0.00 | 0.00 | 70 | 1014.7 |
| 20260504024110 | 17 | 250 | 0.0 | 1.6 | 0.00 | 0.00 | 0.00 | 70 | 1014.7 |
| 20260504023946 | 17 | 250 | 0.0 | 1.6 | 0.00 | 0.00 | 0.00 | 70 | 1014.7 |
| 20260504023843 | 17 | 250 | 0.0 | 1.6 | 0.00 | 0.00 | 0.00 | 70 | 1014.7 |
| 20260504023756 | 17 | 250 | 0.0 | 1.6 | 0.00 | 0.00 | 0.00 | 70 | 1014.7 |
| 20260504023641 | 17 | 250 | 0.0 | 1.6 | 0.00 | 0.00 | 0.00 | 70 | 1014.7 |
| 20260504023540 | 17 | 250 | 0.0 | 1.6 | 0.00 | 0.00 | 0.00 | 70 | 1014.7 |
| 20260504023455 | 17 | 250 | 0.0 | 1.6 | 0.00 | 0.00 | 0.00 | 70 | 1014.7 |
| 20260504023336 | 17 | 250 | 0.0 | 1.6 | 0.00 | 0.00 | 0.00 | 70 | 1014.7 |
| 20260504023249 | 17 | 250 | 0.0 | 1.6 | 0.00 | 0.00 | 0.00 | 70 | 1014.7 |
| 20260504023146 | 17 | 250 | 0.0 | 1.6 | 0.00 | 0.00 | 0.00 | 70 | 1014.7 |
| 20260504023039 | 17 | 250 | 0.0 | 1.6 | 0.00 | 0.00 | 0.00 | 69 | 1014.7 |
| 20260504022947 | 17 | 250 | 0.0 | 1.6 | 0.00 | 0.00 | 0.00 | 69 | 1014.6 |
| 20260504022840 | 17 | 250 | 0.0 | 1.6 | 0.00 | 0.00 | 0.00 | 69 | 1014.6 |
| 20260504022732 | 17 | 250 | 0.0 | 1.6 | 0.00 | 0.00 | 0.00 | 69 | 1014.6 |
| 20260504022649 | 17 | 250 | 0.0 | 1.6 | 0.00 | 0.00 | 0.00 | 69 | 1014.6 |
| 20260504022603 | 17 | 250 | 0.0 | 1.6 | 0.00 | 0.00 | 0.00 | 69 | 1014.6 |
| 20260504022445 | 18 | 250 | 0.0 | 1.6 | 0.00 | 0.00 | 0.00 | 69 | 1014.6 |
| 20260504022346 | 18 | 250 | 0.0 | 1.6 | 0.00 | 0.00 | 0.00 | 69 | 1014.6 |
| 20260504022259 | 18 | 250 | 0.0 | 1.6 | 0.00 | 0.00 | 0.00 | 69 | 1014.6 |
| 20260504022151 | 18 | 250 | 0.0 | 1.6 | 0.00 | 0.00 | 0.00 | 68 | 1014.6 |
| 20260504022108 | 18 | 250 | 0.0 | 1.6 | 0.00 | 0.00 | 0.00 | 68 | 1014.6 |
| 20260504022001 | 18 | 250 | 0.0 | 1.6 | 0.00 | 0.00 | 0.00 | 68 | 1014.6 |
| 20260504021854 | 18 | 250 | 0.0 | 1.6 | 0.00 | 0.00 | 0.00 | 68 | 1014.6 |
| 20260504021739 | 18 | 250 | 0.0 | 1.6 | 0.00 | 0.00 | 0.00 | 68 | 1014.6 |
| 20260504021654 | 18 | 250 | 0.0 | 1.6 | 0.00 | 0.00 | 0.00 | 68 | 1014.6 |
| 20260504021609 | 18 | 250 | 0.0 | 1.6 | 0.00 | 0.00 | 0.00 | 68 | 1014.6 |
| 20260504021501 | 18 | 250 | 0.0 | 1.6 | 0.00 | 0.00 | 0.00 | 68 | 1014.4 |
| 20260504021402 | 18 | 250 | 0.0 | 1.6 | 0.00 | 0.00 | 0.00 | 68 | 1014.4 |
| 20260504021242 | 18 | 250 | 0.0 | 1.6 | 0.00 | 0.00 | 0.00 | 68 | 1014.4 |
| 20260504021140 | 18 | 250 | 0.0 | 1.6 | 0.00 | 0.00 | 0.00 | 68 | 1014.4 |
| 20260504021056 | 18 | 250 | 0.0 | 1.6 | 0.00 | 0.00 | 0.00 | 68 | 1014.4 |
| 20260504020951 | 18 | 250 | 0.0 | 1.6 | 0.00 | 0.00 | 0.00 | 67 | 1014.4 |
| 20260504020907 | 18 | 250 | 0.0 | 1.6 | 0.00 | 0.00 | 0.00 | 67 | 1014.4 |
| 20260504020802 | 18 | 250 | 0.0 | 1.6 | 0.00 | 0.00 | 0.00 | 67 | 1014.4 |
| 20260504020658 | 18 | 250 | 0.0 | 1.6 | 0.00 | 0.00 | 0.00 | 67 | 1014.4 |
| 20260504020552 | 18 | 250 | 0.0 | 1.6 | 0.00 | 0.00 | 0.00 | 67 | 1014.4 |
| 20260504020453 | 18 | 250 | 0.0 | 1.6 | 0.00 | 0.00 | 0.00 | 67 | 1014.4 |
| 20260504020407 | 18 | 250 | 0.0 | 1.6 | 0.00 | 0.00 | 0.00 | 67 | 1014.4 |
| 20260504020320 | 18 | 250 | 0.0 | 0.0 | 0.00 | 0.00 | 0.00 | 67 | 1014.4 |
| 20260504020212 | 18 | 250 | 0.0 | 0.0 | 0.00 | 0.00 | 0.00 | 66 | 1014.4 |
| 20260504020109 | 18 | 250 | 0.0 | 0.0 | 0.00 | 0.00 | 0.00 | 66 | 1014.4 |
| 20260504015941 | 18 | 250 | 0.0 | 0.0 | 0.00 | 0.00 | 0.00 | 66 | 1014.3 |
| 20260504015845 | 18 | 250 | 0.0 | 0.0 | 0.00 | 0.00 | 0.00 | 66 | 1014.3 |
| 20260504015800 | 18 | 250 | 0.0 | 0.0 | 0.00 | 0.00 | 0.00 | 66 | 1014.3 |
| 20260504015655 | 18 | 250 | 0.0 | 0.0 | 0.00 | 0.00 | 0.00 | 66 | 1014.3 |
| 20260504015547 | 18 | 250 | 0.0 | 1.6 | 0.00 | 0.00 | 0.00 | 66 | 1014.3 |
| 20260504015441 | 18 | 250 | 0.0 | 1.6 | 0.00 | 0.00 | 0.00 | 66 | 1014.3 |
| 20260504015342 | 18 | 250 | 0.0 | 3.2 | 0.00 | 0.00 | 0.00 | 66 | 1014.3 |
| 20260504015259 | 18 | 250 | 0.0 | 3.2 | 0.00 | 0.00 | 0.00 | 65 | 1014.3 |
| 20260504015143 | 18 | 250 | 0.0 | 3.2 | 0.00 | 0.00 | 0.00 | 65 | 1014.3 |
| 20260504015058 | 18 | 250 | 0.0 | 3.2 | 0.00 | 0.00 | 0.00 | 65 | 1014.3 |
| 20260504014934 | 18 | 250 | 0.0 | 3.2 | 0.00 | 0.00 | 0.00 | 65 | 1014.3 |
| 20260504014850 | 18 | 250 | 0.0 | 3.2 | 0.00 | 0.00 | 0.00 | 65 | 1014.3 |
| 20260504014807 | 18 | 250 | 0.0 | 3.2 | 0.00 | 0.00 | 0.00 | 65 | 1014.3 |
| 20260504014700 | 18 | 250 | 0.0 | 3.2 | 0.00 | 0.00 | 0.00 | 65 | 1014.3 |
| 20260504014543 | 18 | 250 | 1.6 | 3.2 | 0.00 | 0.00 | 0.00 | 65 | 1014.3 |
| 20260504014444 | 18 | 250 | 1.6 | 1.6 | 0.00 | 0.00 | 0.00 | 64 | 1014.2 |
| 20260504014400 | 18 | 250 | 0.0 | 1.6 | 0.00 | 0.00 | 0.00 | 64 | 1014.2 |
| 20260504014244 | 18 | 250 | 0.0 | 1.6 | 0.00 | 0.00 | 0.00 | 64 | 1014.2 |
| 20260504014137 | 18 | 250 | 0.0 | 1.6 | 0.00 | 0.00 | 0.00 | 64 | 1014.2 |
| 20260504014030 | 19 | 250 | 0.0 | 1.6 | 0.00 | 0.00 | 0.00 | 64 | 1014.2 |
| 20260504013947 | 19 | 250 | 0.0 | 1.6 | 0.00 | 0.00 | 0.00 | 64 | 1014.2 |
| 20260504013847 | 19 | 250 | 0.0 | 1.6 | 0.00 | 0.00 | 0.00 | 64 | 1014.2 |
| 20260504013741 | 19 | 250 | 0.0 | 1.6 | 0.00 | 0.00 | 0.00 | 63 | 1014.2 |
| 20260504013642 | 19 | 250 | 0.0 | 1.6 | 0.00 | 0.00 | 0.00 | 63 | 1014.2 |
| 20260504013554 | 19 | 250 | 0.0 | 1.6 | 0.00 | 0.00 | 0.00 | 63 | 1014.2 |
| 20260504013508 | 19 | 250 | 0.0 | 1.6 | 0.00 | 0.00 | 0.00 | 63 | 1014.2 |
| 20260504013344 | 19 | 250 | 0.0 | 1.6 | 0.00 | 0.00 | 0.00 | 63 | 1014.2 |
| 20260504013241 | 19 | 250 | 0.0 | 1.6 | 0.00 | 0.00 | 0.00 | 63 | 1014.2 |
| 20260504013154 | 19 | 250 | 0.0 | 1.6 | 0.00 | 0.00 | 0.00 | 63 | 1014.2 |
| 20260504013042 | 19 | 250 | 0.0 | 3.2 | 0.00 | 0.00 | 0.00 | 63 | 1014.2 |
| 20260504012956 | 19 | 250 | 0.0 | 3.2 | 0.00 | 0.00 | 0.00 | 63 | 1014.0 |
| 20260504012838 | 19 | 250 | 0.0 | 3.2 | 0.00 | 0.00 | 0.00 | 62 | 1014.0 |
| 20260504012752 | 19 | 250 | 0.0 | 3.2 | 0.00 | 0.00 | 0.00 | 62 | 1014.0 |
| 20260504012706 | 19 | 250 | 0.0 | 3.2 | 0.00 | 0.00 | 0.00 | 62 | 1014.0 |
| 20260504012543 | 20 | 250 | 0.0 | 3.2 | 0.00 | 0.00 | 0.00 | 62 | 1014.0 |
| 20260504012441 | 20 | 250 | 0.0 | 3.2 | 0.00 | 0.00 | 0.00 | 62 | 1014.0 |
| 20260504012338 | 20 | 250 | 1.6 | 3.2 | 0.00 | 0.00 | 0.00 | 62 | 1014.0 |
| 20260504012252 | 20 | 250 | 1.6 | 3.2 | 0.00 | 0.00 | 0.00 | 61 | 1014.0 |
| 20260504012133 | 20 | 252 | 0.0 | 1.6 | 0.00 | 0.00 | 0.00 | 61 | 1014.0 |
| 20260504012036 | 20 | 252 | 0.0 | 1.6 | 0.00 | 0.00 | 0.00 | 61 | 1014.0 |
| 20260504011953 | 20 | 252 | 0.0 | 1.6 | 0.00 | 0.00 | 0.00 | 61 | 1014.0 |
| 20260504011906 | 20 | 252 | 0.0 | 3.2 | 0.00 | 0.00 | 0.00 | 61 | 1014.0 |
| 20260504011758 | 20 | 252 | 1.6 | 4.8 | 0.00 | 0.00 | 0.00 | 61 | 1014.0 |
| 20260504011634 | 20 | 252 | 0.0 | 4.8 | 0.00 | 0.00 | 0.00 | 61 | 1014.0 |
| 20260504011547 | 20 | 252 | 0.0 | 4.8 | 0.00 | 0.00 | 0.00 | 61 | 1014.0 |
| 20260504011447 | 20 | 252 | 0.0 | 6.4 | 0.00 | 0.00 | 0.00 | 61 | 1013.8 |
| 20260504011401 | 20 | 252 | 1.6 | 6.4 | 0.00 | 0.00 | 0.00 | 61 | 1013.8 |
| 20260504011246 | 20 | 252 | 1.6 | 6.4 | 0.00 | 0.00 | 0.00 | 60 | 1013.8 |
| 20260504011147 | 20 | 252 | 1.6 | 6.4 | 0.00 | 0.00 | 0.00 | 60 | 1013.8 |
| 20260504011100 | 20 | 252 | 1.6 | 6.4 | 0.00 | 0.00 | 0.00 | 60 | 1013.8 |
| 20260504010953 | 20 | 252 | 1.6 | 6.4 | 0.00 | 0.00 | 0.00 | 60 | 1013.8 |
| 20260504010910 | 20 | 252 | 1.6 | 9.7 | 0.00 | 0.00 | 0.00 | 60 | 1013.8 |
| 20260504010805 | 20 | 260 | 1.6 | 9.7 | 0.00 | 0.00 | 0.00 | 60 | 1013.8 |
| 20260504010646 | 20 | 252 | 1.6 | 9.7 | 0.00 | 0.00 | 0.00 | 59 | 1013.8 |
| 20260504010541 | 20 | 240 | 1.6 | 9.7 | 0.00 | 0.00 | 0.00 | 59 | 1013.8 |
| 20260504010434 | 20 | 240 | 1.6 | 9.7 | 0.00 | 0.00 | 0.00 | 59 | 1013.8 |
| 20260504010349 | 20 | 240 | 3.2 | 9.7 | 0.00 | 0.00 | 0.00 | 59 | 1013.8 |
| 20260504010234 | 20 | 238 | 3.2 | 9.7 | 0.00 | 0.00 | 0.00 | 59 | 1013.8 |
| 20260504010146 | 20 | 221 | 3.2 | 9.7 | 0.00 | 0.00 | 0.00 | 59 | 1013.8 |
| 20260504010047 | 20 | 227 | 3.2 | 9.7 | 0.00 | 0.00 | 0.00 | 59 | 1013.8 |
| 20260504005943 | 20 | 218 | 3.2 | 8.0 | 0.00 | 0.00 | 0.00 | 59 | 1013.7 |
| 20260504005857 | 20 | 218 | 3.2 | 8.0 | 0.00 | 0.00 | 0.00 | 59 | 1013.7 |
| 20260504005742 | 20 | 232 | 3.2 | 8.0 | 0.00 | 0.00 | 0.00 | 59 | 1013.7 |
| 20260504005639 | 20 | 235 | 3.2 | 6.4 | 0.00 | 0.00 | 0.00 | 58 | 1013.7 |
| 20260504005552 | 20 | 227 | 1.6 | 6.4 | 0.00 | 0.00 | 0.00 | 58 | 1013.7 |
| 20260504005509 | 20 | 241 | 1.6 | 6.4 | 0.00 | 0.00 | 0.00 | 58 | 1013.7 |
| 20260504005411 | 20 | 241 | 3.2 | 6.4 | 0.00 | 0.00 | 0.00 | 58 | 1013.7 |
| 20260504005315 | 20 | 239 | 3.2 | 9.7 | 0.00 | 0.00 | 0.00 | 58 | 1013.7 |
| 20260504005230 | 20 | 216 | 3.2 | 9.7 | 0.00 | 0.00 | 0.00 | 58 | 1013.7 |
| 20260504005142 | 20 | 234 | 1.6 | 9.7 | 0.00 | 0.00 | 0.00 | 57 | 1013.7 |
| 20260504005038 | 20 | 269 | 1.6 | 9.7 | 0.00 | 0.00 | 0.00 | 57 | 1013.7 |
| 20260504004644 | 21 | 264 | 3.2 | 9.7 | 0.00 | 0.00 | 0.00 | 57 | 1013.7 |
| 20260504004601 | 21 | 249 | 3.2 | 9.7 | 0.00 | 0.00 | 0.00 | 57 | 1013.7 |
| 20260504004457 | 21 | 222 | 3.2 | 9.7 | 0.00 | 0.00 | 0.00 | 57 | 1013.7 |
| 20260504004345 | 21 | 232 | 3.2 | 9.7 | 0.00 | 0.00 | 0.00 | 57 | 1013.7 |
| 20260504004258 | 21 | 248 | 1.6 | 9.7 | 0.00 | 0.00 | 0.00 | 56 | 1013.7 |
| 20260504004155 | 21 | 277 | 1.6 | 11.3 | 0.00 | 0.00 | 0.00 | 56 | 1013.7 |
| 20260504004048 | 21 | 262 | 3.2 | 11.3 | 0.00 | 0.00 | 0.00 | 56 | 1013.7 |
| 20260504004002 | 21 | 245 | 3.2 | 11.3 | 0.00 | 0.00 | 0.00 | 56 | 1013.7 |
| 20260504003919 | 21 | 252 | 4.8 | 11.3 | 0.00 | 0.00 | 0.00 | 55 | 1013.7 |
| 20260504003817 | 21 | 244 | 3.2 | 12.9 | 0.00 | 0.00 | 0.00 | 55 | 1013.7 |
| 20260504003641 | 21 | 236 | 3.2 | 12.9 | 0.00 | 0.00 | 0.00 | 55 | 1013.7 |
| 20260504003557 | 21 | 223 | 4.8 | 12.9 | 0.00 | 0.00 | 0.00 | 55 | 1013.7 |
| 20260504003517 | 21 | 249 | 4.8 | 12.9 | 0.00 | 0.00 | 0.00 | 54 | 1013.7 |
| 20260504003410 | 21 | 209 | 4.8 | 12.9 | 0.00 | 0.00 | 0.00 | 54 | 1013.7 |
| 20260504003323 | 21 | 234 | 4.8 | 12.9 | 0.00 | 0.00 | 0.00 | 54 | 1013.7 |
| 20260504003200 | 21 | 200 | 4.8 | 12.9 | 0.00 | 0.00 | 0.00 | 54 | 1013.7 |
| 20260504003038 | 21 | 267 | 4.8 | 12.9 | 0.00 | 0.00 | 0.00 | 54 | 1013.7 |
| 20260504002935 | 21 | 271 | 4.8 | 12.9 | 0.00 | 0.00 | 0.00 | 54 | 1013.5 |
| 20260504002852 | 21 | 250 | 3.2 | 11.3 | 0.00 | 0.00 | 0.00 | 53 | 1013.5 |
| 20260504002805 | 21 | 248 | 4.8 | 11.3 | 0.00 | 0.00 | 0.00 | 53 | 1013.5 |
| 20260504002632 | 21 | 228 | 3.2 | 11.3 | 0.00 | 0.00 | 0.00 | 53 | 1013.5 |
| 20260504002548 | 21 | 221 | 3.2 | 8.0 | 0.00 | 0.00 | 0.00 | 53 | 1013.5 |
| 20260504002443 | 21 | 209 | 4.8 | 8.0 | 0.00 | 0.00 | 0.00 | 53 | 1013.5 |
| 20260504002330 | 21 | 225 | 3.2 | 8.0 | 0.00 | 0.00 | 0.00 | 53 | 1013.5 |
| 20260504002247 | 21 | 215 | 1.6 | 8.0 | 0.00 | 0.00 | 0.00 | 53 | 1013.5 |
| 20260504002140 | 21 | 262 | 1.6 | 4.8 | 0.00 | 0.00 | 0.00 | 52 | 1013.5 |
| 20260504002036 | 21 | 281 | 1.6 | 4.8 | 0.00 | 0.00 | 0.00 | 52 | 1013.5 |
| 20260504001950 | 21 | 281 | 1.6 | 4.8 | 0.00 | 0.00 | 0.00 | 52 | 1013.5 |
| 20260504001851 | 21 | 281 | 1.6 | 4.8 | 0.00 | 0.00 | 0.00 | 52 | 1013.5 |
| 20260504001745 | 21 | 248 | 1.6 | 4.8 | 0.00 | 0.00 | 0.00 | 52 | 1013.5 |
| 20260504001642 | 21 | 188 | 1.6 | 4.8 | 0.00 | 0.00 | 0.00 | 51 | 1013.5 |
| 20260504001555 | 21 | 188 | 1.6 | 4.8 | 0.00 | 0.00 | 0.00 | 51 | 1013.5 |
| 20260504001443 | 21 | 176 | 3.2 | 4.8 | 0.00 | 0.00 | 0.00 | 51 | 1013.4 |
| 20260504001340 | 22 | 241 | 1.6 | 4.8 | 0.00 | 0.00 | 0.00 | 51 | 1013.4 |
| 20260504001257 | 22 | 225 | 1.6 | 4.8 | 0.00 | 0.00 | 0.00 | 51 | 1013.4 |
| 20260504001153 | 22 | 259 | 1.6 | 4.8 | 0.00 | 0.00 | 0.00 | 51 | 1013.4 |
| 20260504001038 | 22 | 261 | 1.6 | 4.8 | 0.00 | 0.00 | 0.00 | 50 | 1013.4 |
| 20260504000955 | 22 | 261 | 1.6 | 4.8 | 0.00 | 0.00 | 0.00 | 50 | 1013.4 |
| 20260504000909 | 22 | 264 | 3.2 | 4.8 | 0.00 | 0.00 | 0.00 | 50 | 1013.4 |
| 20260504000751 | 22 | 252 | 1.6 | 3.2 | 0.00 | 0.00 | 0.00 | 49 | 1013.4 |
| 20260504000705 | 22 | 267 | 1.6 | 3.2 | 0.00 | 0.00 | 0.00 | 49 | 1013.4 |
| 20260504000606 | 22 | 277 | 1.6 | 4.8 | 0.00 | 0.00 | 0.00 | 49 | 1013.4 |
| 20260504000458 | 22 | 226 | 1.6 | 4.8 | 0.00 | 0.00 | 0.00 | 48 | 1013.4 |
| 20260504000412 | 22 | 213 | 1.6 | 4.8 | 0.00 | 0.00 | 0.00 | 48 | 1013.4 |
| 20260504000325 | 22 | 227 | 1.6 | 4.8 | 0.00 | 0.00 | 0.00 | 48 | 1013.4 |
| 20260504000141 | 22 | 242 | 0.0 | 4.8 | 0.00 | 0.00 | 0.00 | 47 | 1013.4 |
| 20260504000041 | 22 | 242 | 0.0 | 4.8 | 0.00 | 0.00 | 0.00 | 47 | 1013.4 |
| 20260503235953 | 22 | 242 | 1.6 | 6.4 | 0.00 | 0.00 | 0.00 | 46 | 1013.4 |
| 20260503235906 | 22 | 242 | 1.6 | 8.0 | 0.00 | 0.00 | 0.00 | 46 | 1013.4 |
| 20260503235800 | 22 | 234 | 1.6 | 8.0 | 0.00 | 0.00 | 0.00 | 46 | 1013.4 |
| 20260503235641 | 22 | 273 | 0.0 | 8.0 | 0.00 | 0.00 | 0.00 | 46 | 1013.4 |
| 20260503235542 | 22 | 211 | 0.0 | 8.0 | 0.00 | 0.00 | 0.00 | 45 | 1013.4 |
| 20260503235437 | 22 | 211 | 1.6 | 8.0 | 0.00 | 0.00 | 0.00 | 45 | 1013.4 |
| 20260503235313 | 22 | 251 | 1.6 | 8.0 | 0.00 | 0.00 | 0.00 | 44 | 1013.4 |
| 20260503235145 | 22 | 251 | 3.2 | 9.7 | 0.00 | 0.00 | 0.00 | 44 | 1013.4 |
| 20260503235042 | 23 | 209 | 1.6 | 9.7 | 0.00 | 0.00 | 0.00 | 43 | 1013.4 |
| 20260503234956 | 23 | 265 | 1.6 | 9.7 | 0.00 | 0.00 | 0.00 | 43 | 1013.4 |
| 20260503234834 | 23 | 273 | 1.6 | 9.7 | 0.00 | 0.00 | 0.00 | 43 | 1013.4 |
| 20260503234735 | 23 | 236 | 3.2 | 9.7 | 0.00 | 0.00 | 0.00 | 42 | 1013.4 |
| 20260503234653 | 23 | 248 | 1.6 | 9.7 | 0.00 | 0.00 | 0.00 | 42 | 1013.4 |
| 20260503234535 | 23 | 244 | 3.2 | 9.7 | 0.00 | 0.00 | 0.00 | 42 | 1013.4 |
| 20260503234430 | 23 | 202 | 4.8 | 9.7 | 0.00 | 0.00 | 0.00 | 42 | 1013.3 |
| 20260503234347 | 23 | 225 | 4.8 | 9.7 | 0.00 | 0.00 | 0.00 | 42 | 1013.3 |
| 20260503234304 | 23 | 192 | 1.6 | 8.0 | 0.00 | 0.00 | 0.00 | 44 | 1013.3 |
| 20260503234200 | 23 | 219 | 1.6 | 4.8 | 0.00 | 0.00 | 0.00 | 43 | 1013.3 |
| 20260503234045 | 23 | 192 | 1.6 | 4.8 | 0.00 | 0.00 | 0.00 | 43 | 1013.3 |
| 20260503233939 | 23 | 192 | 1.6 | 4.8 | 0.00 | 0.00 | 0.00 | 42 | 1013.3 |
| 20260503233845 | 23 | 189 | 1.6 | 4.8 | 0.00 | 0.00 | 0.00 | 42 | 1013.3 |
| 20260503233748 | 23 | 121 | 1.6 | 4.8 | 0.00 | 0.00 | 0.00 | 42 | 1013.3 |
| 20260503233642 | 23 | 198 | 1.6 | 6.4 | 0.00 | 0.00 | 0.00 | 42 | 1013.3 |
| 20260503233543 | 23 | 199 | 1.6 | 6.4 | 0.00 | 0.00 | 0.00 | 42 | 1013.3 |
| 20260503233500 | 23 | 199 | 1.6 | 6.4 | 0.00 | 0.00 | 0.00 | 41 | 1013.3 |
| 20260503233341 | 23 | 199 | 1.6 | 6.4 | 0.00 | 0.00 | 0.00 | 41 | 1013.3 |
| 20260503233235 | 23 | 199 | 1.6 | 6.4 | 0.00 | 0.00 | 0.00 | 41 | 1013.3 |
| 20260503233133 | 23 | 202 | 1.6 | 6.4 | 0.00 | 0.00 | 0.00 | 41 | 1013.3 |
| 20260503233047 | 23 | 202 | 1.6 | 6.4 | 0.00 | 0.00 | 0.00 | 41 | 1013.3 |
| 20260503232946 | 23 | 202 | 3.2 | 6.4 | 0.00 | 0.00 | 0.00 | 41 | 1013.4 |
| 20260503232859 | 23 | 175 | 3.2 | 6.4 | 0.00 | 0.00 | 0.00 | 40 | 1013.4 |
| 20260503232736 | 23 | 205 | 3.2 | 4.8 | 0.00 | 0.00 | 0.00 | 40 | 1013.4 |
| 20260503232649 | 23 | 231 | 3.2 | 4.8 | 0.00 | 0.00 | 0.00 | 40 | 1013.4 |
| 20260503232542 | 23 | 238 | 1.6 | 4.8 | 0.00 | 0.00 | 0.00 | 40 | 1013.4 |
| 20260503232445 | 23 | 180 | 1.6 | 4.8 | 0.00 | 0.00 | 0.00 | 41 | 1013.4 |
| 20260503232339 | 23 | 180 | 3.2 | 4.8 | 0.00 | 0.00 | 0.00 | 40 | 1013.4 |
| 20260503232241 | 24 | 165 | 1.6 | 4.8 | 0.00 | 0.00 | 0.00 | 40 | 1013.4 |
| 20260503232155 | 24 | 42 | 1.6 | 4.8 | 0.00 | 0.00 | 0.00 | 41 | 1013.4 |
| 20260503232040 | 24 | 94 | 3.2 | 6.4 | 0.00 | 0.00 | 0.00 | 40 | 1013.4 |
| 20260503231953 | 24 | 94 | 3.2 | 6.4 | 0.00 | 0.00 | 0.00 | 40 | 1013.4 |
| 20260503231906 | 24 | 142 | 3.2 | 6.4 | 0.00 | 0.00 | 0.00 | 40 | 1013.4 |
| 20260503231743 | 24 | 165 | 3.2 | 6.4 | 0.00 | 0.00 | 0.00 | 40 | 1013.4 |
| 20260503231656 | 24 | 176 | 1.6 | 6.4 | 0.00 | 0.00 | 0.00 | 40 | 1013.4 |
| 20260503231544 | 24 | 43 | 1.6 | 6.4 | 0.00 | 0.00 | 0.00 | 40 | 1013.4 |
| 20260503231439 | 24 | 30 | 3.2 | 6.4 | 0.00 | 0.00 | 0.00 | 40 | 1013.4 |
| 20260503231343 | 24 | 360 | 4.8 | 6.4 | 0.00 | 0.00 | 0.00 | 40 | 1013.4 |
| 20260503231257 | 24 | 14 | 4.8 | 6.4 | 0.00 | 0.00 | 0.00 | 40 | 1013.4 |
| 20260503231211 | 24 | 355 | 3.2 | 6.4 | 0.00 | 0.00 | 0.00 | 40 | 1013.4 |
| 20260503231035 | 24 | 101 | 3.2 | 6.4 | 0.00 | 0.00 | 0.00 | 40 | 1013.4 |
| 20260503230949 | 25 | 120 | 3.2 | 6.4 | 0.00 | 0.00 | 0.00 | 40 | 1013.4 |
| 20260503230906 | 25 | 132 | 3.2 | 6.4 | 0.00 | 0.00 | 0.00 | 39 | 1013.4 |
| 20260503230817 | 25 | 160 | 3.2 | 6.4 | 0.00 | 0.00 | 0.00 | 38 | 1013.4 |
| 20260503230709 | 25 | 160 | 3.2 | 6.4 | 0.00 | 0.00 | 0.00 | 38 | 1013.4 |
| 20260503230545 | 25 | 180 | 1.6 | 6.4 | 0.00 | 0.00 | 0.00 | 38 | 1013.4 |
| 20260503230459 | 25 | 149 | 1.6 | 6.4 | 0.00 | 0.00 | 0.00 | 37 | 1013.4 |
| 20260503230345 | 25 | 138 | 3.2 | 6.4 | 0.00 | 0.00 | 0.00 | 35 | 1013.4 |
| 20260503230242 | 25 | 142 | 3.2 | 6.4 | 0.00 | 0.00 | 0.00 | 34 | 1013.4 |
| 20260503230159 | 25 | 153 | 3.2 | 6.4 | 0.00 | 0.00 | 0.00 | 34 | 1013.4 |
| 20260503230043 | 25 | 279 | 1.6 | 6.4 | 0.00 | 0.00 | 0.00 | 32 | 1013.4 |
| 20260503225939 | 25 | 17 | 1.6 | 6.4 | 0.00 | 0.00 | 0.00 | 32 | 1013.3 |
| 20260503225851 | 25 | 55 | 1.6 | 6.4 | 0.00 | 0.00 | 0.00 | 33 | 1013.3 |
| 20260503225804 | 25 | 152 | 1.6 | 6.4 | 0.00 | 0.00 | 0.00 | 33 | 1013.3 |
| 20260503225716 | 25 | 152 | 1.6 | 6.4 | 0.00 | 0.00 | 0.00 | 30 | 1013.3 |
| 20260503225605 | 25 | 159 | 3.2 | 6.4 | 0.00 | 0.00 | 0.00 | 30 | 1013.3 |
| 20260503225501 | 25 | 105 | 3.2 | 6.4 | 0.00 | 0.00 | 0.00 | 31 | 1013.3 |
| 20260503225354 | 25 | 72 | 1.6 | 6.4 | 0.00 | 0.00 | 0.00 | 35 | 1013.3 |
| 20260503225247 | 25 | 136 | 3.2 | 6.4 | 0.00 | 0.00 | 0.00 | 36 | 1013.3 |
| 20260503225143 | 25 | 136 | 3.2 | 6.4 | 0.00 | 0.00 | 0.00 | 35 | 1013.3 |
| 20260503225057 | 25 | 165 | 1.6 | 6.4 | 0.00 | 0.00 | 0.00 | 33 | 1013.3 |
| 20260503225009 | 25 | 170 | 1.6 | 6.4 | 0.00 | 0.00 | 0.00 | 30 | 1013.3 |
| 20260503224833 | 25 | 55 | 3.2 | 6.4 | 0.00 | 0.00 | 0.00 | 29 | 1013.3 |
| 20260503224727 | 25 | 235 | 3.2 | 6.4 | 0.00 | 0.00 | 0.00 | 29 | 1013.3 |
| 20260503224631 | 25 | 227 | 3.2 | 8.0 | 0.00 | 0.00 | 0.00 | 29 | 1013.3 |
| 20260503224551 | 25 | 217 | 3.2 | 8.0 | 0.00 | 0.00 | 0.00 | 28 | 1013.3 |
| 20260503224432 | 25 | 286 | 1.6 | 8.0 | 0.00 | 0.00 | 0.00 | 29 | 1013.2 |
| 20260503224348 | 25 | 288 | 1.6 | 8.0 | 0.00 | 0.00 | 0.00 | 30 | 1013.2 |
| 20260503224245 | 25 | 338 | 1.6 | 8.0 | 0.00 | 0.00 | 0.00 | 29 | 1013.2 |
| 20260503224202 | 25 | 31 | 1.6 | 8.0 | 0.00 | 0.00 | 0.00 | 29 | 1013.2 |
| 20260503224058 | 25 | 249 | 3.2 | 16.1 | 0.00 | 0.00 | 0.00 | 29 | 1013.2 |
| 20260503223941 | 25 | 350 | 1.6 | 16.1 | 0.00 | 0.00 | 0.00 | 29 | 1013.2 |
| 20260503223839 | 25 | 35 | 3.2 | 16.1 | 0.00 | 0.00 | 0.00 | 29 | 1013.2 |
| 20260503223740 | 25 | 269 | 3.2 | 16.1 | 0.00 | 0.00 | 0.00 | 29 | 1013.2 |
| 20260503223654 | 25 | 70 | 3.2 | 16.1 | 0.00 | 0.00 | 0.00 | 29 | 1013.2 |
| 20260503223534 | 25 | 125 | 1.6 | 16.1 | 0.00 | 0.00 | 0.00 | 29 | 1013.2 |
| 20260503223430 | 25 | 61 | 6.4 | 16.1 | 0.00 | 0.00 | 0.00 | 29 | 1013.2 |
| 20260503223347 | 25 | 78 | 8.0 | 16.1 | 0.00 | 0.00 | 0.00 | 28 | 1013.2 |
| 20260503223301 | 26 | 50 | 4.8 | 16.1 | 0.00 | 0.00 | 0.00 | 29 | 1013.2 |
| 20260503223153 | 26 | 13 | 3.2 | 11.3 | 0.00 | 0.00 | 0.00 | 28 | 1013.2 |
| 20260503223046 | 26 | 93 | 4.8 | 11.3 | 0.00 | 0.00 | 0.00 | 28 | 1013.2 |
| 20260503222946 | 26 | 86 | 4.8 | 11.3 | 0.00 | 0.00 | 0.00 | 28 | 1013.2 |
| 20260503222858 | 26 | 44 | 3.2 | 8.0 | 0.00 | 0.00 | 0.00 | 29 | 1013.2 |
| 20260503222635 | 26 | 47 | 3.2 | 8.0 | 0.00 | 0.00 | 0.00 | 30 | 1013.2 |
| 20260503222529 | 26 | 34 | 4.8 | 8.0 | 0.00 | 0.00 | 0.00 | 30 | 1013.2 |
| 20260503222446 | 26 | 22 | 3.2 | 8.0 | 0.00 | 0.00 | 0.00 | 30 | 1013.2 |
| 20260503222403 | 26 | 360 | 3.2 | 8.0 | 0.00 | 0.00 | 0.00 | 29 | 1013.2 |
| 20260503222248 | 26 | 16 | 1.6 | 8.0 | 0.00 | 0.00 | 0.00 | 29 | 1013.2 |
| 20260503222201 | 26 | 35 | 3.2 | 8.0 | 0.00 | 0.00 | 0.00 | 29 | 1013.2 |
| 20260503222059 | 26 | 42 | 3.2 | 9.7 | 0.00 | 0.00 | 0.00 | 29 | 1013.2 |
| 20260503221935 | 26 | 27 | 3.2 | 11.3 | 0.00 | 0.00 | 0.00 | 30 | 1013.2 |
| 20260503221848 | 26 | 27 | 4.8 | 11.3 | 0.00 | 0.00 | 0.00 | 30 | 1013.2 |
| 20260503221802 | 26 | 338 | 4.8 | 11.3 | 0.00 | 0.00 | 0.00 | 30 | 1013.2 |
| 20260503221639 | 26 | 30 | 3.2 | 12.9 | 0.00 | 0.00 | 0.00 | 29 | 1013.2 |
| 20260503221535 | 26 | 269 | 3.2 | 12.9 | 0.00 | 0.00 | 0.00 | 29 | 1013.2 |
| 20260503221452 | 26 | 50 | 4.8 | 12.9 | 0.00 | 0.00 | 0.00 | 29 | 1013.2 |
| 20260503221334 | 26 | 21 | 6.4 | 12.9 | 0.00 | 0.00 | 0.00 | 29 | 1013.2 |
| 20260503221235 | 26 | 26 | 6.4 | 12.9 | 0.00 | 0.00 | 0.00 | 29 | 1013.2 |
| 20260503221148 | 26 | 325 | 6.4 | 12.9 | 0.00 | 0.00 | 0.00 | 30 | 1013.2 |
| 20260503221046 | 26 | 296 | 6.4 | 12.9 | 0.00 | 0.00 | 0.00 | 30 | 1013.2 |
| 20260503220959 | 26 | 360 | 4.8 | 12.9 | 0.00 | 0.00 | 0.00 | 30 | 1013.2 |
| 20260503220834 | 26 | 33 | 3.2 | 9.7 | 0.00 | 0.00 | 0.00 | 30 | 1013.2 |
| 20260503220746 | 26 | 316 | 3.2 | 9.7 | 0.00 | 0.00 | 0.00 | 31 | 1013.2 |
| 20260503220643 | 26 | 82 | 3.2 | 9.7 | 0.00 | 0.00 | 0.00 | 31 | 1013.2 |
| 20260503220557 | 26 | 24 | 3.2 | 9.7 | 0.00 | 0.00 | 0.00 | 31 | 1013.2 |
| 20260503220511 | 26 | 203 | 3.2 | 9.7 | 0.00 | 0.00 | 0.00 | 30 | 1013.2 |
| 20260503220355 | 26 | 46 | 4.8 | 9.7 | 0.00 | 0.00 | 0.00 | 30 | 1013.2 |
| 20260503220248 | 26 | 34 | 6.4 | 9.7 | 0.00 | 0.00 | 0.00 | 30 | 1013.2 |
| 20260503220145 | 25 | 342 | 4.8 | 8.0 | 0.00 | 0.00 | 0.00 | 31 | 1013.2 |
| 20260503220058 | 25 | 47 | 3.2 | 9.7 | 0.00 | 0.00 | 0.00 | 30 | 1013.2 |
| 20260503215939 | 25 | 330 | 3.2 | 9.7 | 0.00 | 0.00 | 0.00 | 30 | 1013.4 |
| 20260503215830 | 25 | 294 | 3.2 | 9.7 | 0.00 | 0.00 | 0.00 | 30 | 1013.4 |
| 20260503215747 | 25 | 42 | 4.8 | 9.7 | 0.00 | 0.00 | 0.00 | 30 | 1013.4 |
| 20260503215644 | 25 | 34 | 4.8 | 9.7 | 0.00 | 0.00 | 0.00 | 30 | 1013.4 |
| 20260503215600 | 25 | 319 | 4.8 | 9.7 | 0.00 | 0.00 | 0.00 | 30 | 1013.4 |
| 20260503215445 | 26 | 85 | 4.8 | 11.3 | 0.00 | 0.00 | 0.00 | 30 | 1013.4 |
| 20260503215343 | 26 | 329 | 4.8 | 11.3 | 0.00 | 0.00 | 0.00 | 30 | 1013.4 |
| 20260503215255 | 26 | 32 | 6.4 | 11.3 | 0.00 | 0.00 | 0.00 | 31 | 1013.4 |
| 20260503215150 | 26 | 5 | 6.4 | 11.3 | 0.00 | 0.00 | 0.00 | 31 | 1013.4 |
| 20260503215104 | 26 | 322 | 6.4 | 11.3 | 0.00 | 0.00 | 0.00 | 30 | 1013.4 |
| 20260503214942 | 26 | 355 | 3.2 | 11.3 | 0.00 | 0.00 | 0.00 | 30 | 1013.4 |
| 20260503214838 | 26 | 5 | 3.2 | 11.3 | 0.00 | 0.00 | 0.00 | 30 | 1013.4 |
| 20260503214752 | 25 | 271 | 4.8 | 11.3 | 0.00 | 0.00 | 0.00 | 31 | 1013.4 |
| 20260503214710 | 25 | 300 | 6.4 | 11.3 | 0.00 | 0.00 | 0.00 | 30 | 1013.4 |
| 20260503214536 | 25 | 292 | 4.8 | 11.3 | 0.00 | 0.00 | 0.00 | 31 | 1013.4 |
| 20260503214433 | 25 | 329 | 4.8 | 11.3 | 0.00 | 0.00 | 0.00 | 30 | 1013.5 |
| 20260503214350 | 25 | 23 | 4.8 | 11.3 | 0.00 | 0.00 | 0.00 | 30 | 1013.5 |
| 20260503214233 | 25 | 286 | 4.8 | 11.3 | 0.00 | 0.00 | 0.00 | 30 | 1013.5 |
| 20260503214146 | 25 | 293 | 4.8 | 11.3 | 0.00 | 0.00 | 0.00 | 29 | 1013.5 |
| 20260503214043 | 25 | 319 | 4.8 | 11.3 | 0.00 | 0.00 | 0.00 | 29 | 1013.5 |
| 20260503213957 | 25 | 355 | 3.2 | 11.3 | 0.00 | 0.00 | 0.00 | 30 | 1013.5 |
| 20260503213911 | 25 | 300 | 3.2 | 11.3 | 0.00 | 0.00 | 0.00 | 30 | 1013.5 |
| 20260503213807 | 25 | 279 | 4.8 | 11.3 | 0.00 | 0.00 | 0.00 | 29 | 1013.5 |
| 20260503213645 | 25 | 355 | 4.8 | 11.3 | 0.00 | 0.00 | 0.00 | 29 | 1013.5 |
| 20260503213542 | 26 | 305 | 6.4 | 12.9 | 0.00 | 0.00 | 0.00 | 29 | 1013.5 |
| 20260503213435 | 26 | 272 | 4.8 | 14.5 | 0.00 | 0.00 | 0.00 | 29 | 1013.5 |
| 20260503213350 | 26 | 275 | 3.2 | 14.5 | 0.00 | 0.00 | 0.00 | 30 | 1013.5 |
| 20260503213230 | 26 | 44 | 4.8 | 14.5 | 0.00 | 0.00 | 0.00 | 29 | 1013.5 |
| 20260503213146 | 26 | 355 | 3.2 | 14.5 | 0.00 | 0.00 | 0.00 | 29 | 1013.5 |
| 20260503213100 | 26 | 349 | 1.6 | 14.5 | 0.00 | 0.00 | 0.00 | 30 | 1013.5 |
| 20260503213012 | 26 | 25 | 1.6 | 14.5 | 0.00 | 0.00 | 0.00 | 29 | 1013.7 |
| 20260503212849 | 26 | 18 | 4.8 | 14.5 | 0.00 | 0.00 | 0.00 | 29 | 1013.7 |
| 20260503212733 | 26 | 44 | 9.7 | 14.5 | 0.00 | 0.00 | 0.00 | 29 | 1013.7 |
| 20260503212628 | 26 | 65 | 9.7 | 14.5 | 0.00 | 0.00 | 0.00 | 29 | 1013.7 |
| 20260503212548 | 26 | 5 | 8.0 | 14.5 | 0.00 | 0.00 | 0.00 | 29 | 1013.7 |
| 20260503212500 | 26 | 34 | 4.8 | 12.9 | 0.00 | 0.00 | 0.00 | 29 | 1013.7 |
| 20260503212414 | 26 | 26 | 4.8 | 12.9 | 0.00 | 0.00 | 0.00 | 30 | 1013.7 |
| 20260503212235 | 26 | 340 | 4.8 | 12.9 | 0.00 | 0.00 | 0.00 | 30 | 1013.7 |
| 20260503212152 | 26 | 5 | 6.4 | 12.9 | 0.00 | 0.00 | 0.00 | 30 | 1013.7 |
| 20260503212106 | 26 | 93 | 4.8 | 12.9 | 0.00 | 0.00 | 0.00 | 30 | 1013.7 |
| 20260503211945 | 25 | 63 | 4.8 | 12.9 | 0.00 | 0.00 | 0.00 | 30 | 1013.7 |
| 20260503211842 | 25 | 18 | 6.4 | 12.9 | 0.00 | 0.00 | 0.00 | 30 | 1013.7 |
| 20260503211750 | 25 | 303 | 6.4 | 12.9 | 0.00 | 0.00 | 0.00 | 29 | 1013.7 |
| 20260503211645 | 25 | 280 | 6.4 | 11.3 | 0.00 | 0.00 | 0.00 | 29 | 1013.7 |
| 20260503211542 | 26 | 250 | 6.4 | 11.3 | 0.00 | 0.00 | 0.00 | 29 | 1013.7 |
| 20260503211455 | 26 | 299 | 6.4 | 11.3 | 0.00 | 0.00 | 0.00 | 30 | 1013.7 |
| 20260503211340 | 26 | 304 | 6.4 | 11.3 | 0.00 | 0.00 | 0.00 | 29 | 1013.7 |
| 20260503211233 | 26 | 270 | 6.4 | 11.3 | 0.00 | 0.00 | 0.00 | 30 | 1013.7 |
| 20260503211135 | 26 | 318 | 6.4 | 11.3 | 0.00 | 0.00 | 0.00 | 30 | 1013.7 |
| 20260503211040 | 26 | 298 | 6.4 | 11.3 | 0.00 | 0.00 | 0.00 | 29 | 1013.7 |
| 20260503210937 | 26 | 350 | 6.4 | 11.3 | 0.00 | 0.00 | 0.00 | 29 | 1013.7 |
| 20260503210833 | 26 | 59 | 4.8 | 9.7 | 0.00 | 0.00 | 0.00 | 30 | 1013.7 |
| 20260503210750 | 26 | 26 | 4.8 | 8.0 | 0.00 | 0.00 | 0.00 | 30 | 1013.7 |
| 20260503210634 | 26 | 295 | 4.8 | 14.5 | 0.00 | 0.00 | 0.00 | 30 | 1013.7 |
| 20260503210548 | 26 | 313 | 4.8 | 14.5 | 0.00 | 0.00 | 0.00 | 29 | 1013.7 |
| 20260503210501 | 26 | 308 | 4.8 | 14.5 | 0.00 | 0.00 | 0.00 | 29 | 1013.7 |
| 20260503210357 | 26 | 355 | 4.8 | 17.7 | 0.00 | 0.00 | 0.00 | 29 | 1013.7 |
| 20260503210256 | 26 | 348 | 3.2 | 17.7 | 0.00 | 0.00 | 0.00 | 30 | 1013.7 |
| 20260503210134 | 26 | 20 | 3.2 | 17.7 | 0.00 | 0.00 | 0.00 | 30 | 1013.7 |
| 20260503210030 | 25 | 122 | 4.8 | 17.7 | 0.00 | 0.00 | 0.00 | 30 | 1013.7 |
| 20260503205948 | 26 | 270 | 6.4 | 17.7 | 0.00 | 0.00 | 0.00 | 29 | 1013.9 |
| 20260503205901 | 26 | 277 | 8.0 | 17.7 | 0.00 | 0.00 | 0.00 | 29 | 1013.9 |
| 20260503205815 | 26 | 27 | 9.7 | 17.7 | 0.00 | 0.00 | 0.00 | 29 | 1013.9 |
| 20260503205636 | 26 | 325 | 9.7 | 17.7 | 0.00 | 0.00 | 0.00 | 30 | 1013.9 |
| 20260503205529 | 26 | 13 | 6.4 | 17.7 | 0.00 | 0.00 | 0.00 | 29 | 1013.9 |
| 20260503205424 | 26 | 266 | 4.8 | 11.3 | 0.00 | 0.00 | 0.00 | 30 | 1013.9 |
| 20260503205317 | 26 | 312 | 6.4 | 11.3 | 0.00 | 0.00 | 0.00 | 29 | 1013.9 |
| 20260503205209 | 26 | 302 | 6.4 | 11.3 | 0.00 | 0.00 | 0.00 | 29 | 1013.9 |
| 20260503205125 | 26 | 53 | 4.8 | 11.3 | 0.00 | 0.00 | 0.00 | 29 | 1013.9 |
| 20260503204944 | 26 | 47 | 6.4 | 11.3 | 0.00 | 0.00 | 0.00 | 29 | 1013.9 |
| 20260503204840 | 26 | 267 | 6.4 | 11.3 | 0.00 | 0.00 | 0.00 | 29 | 1013.9 |
| 20260503204756 | 26 | 306 | 4.8 | 11.3 | 0.00 | 0.00 | 0.00 | 29 | 1013.9 |
| 20260503204652 | 26 | 292 | 6.4 | 11.3 | 0.00 | 0.00 | 0.00 | 29 | 1013.9 |
| 20260503204548 | 25 | 351 | 4.8 | 11.3 | 0.00 | 0.00 | 0.00 | 30 | 1013.9 |
| 20260503204445 | 25 | 321 | 3.2 | 11.3 | 0.00 | 0.00 | 0.00 | 31 | 1014.1 |
| 20260503204342 | 25 | 34 | 3.2 | 11.3 | 0.00 | 0.00 | 0.00 | 29 | 1014.1 |
| 20260503204256 | 25 | 14 | 4.8 | 11.3 | 0.00 | 0.00 | 0.00 | 29 | 1014.1 |
| 20260503204209 | 25 | 118 | 4.8 | 11.3 | 0.00 | 0.00 | 0.00 | 29 | 1014.1 |
| 20260503204032 | 25 | 30 | 4.8 | 11.3 | 0.00 | 0.00 | 0.00 | 29 | 1014.1 |
| 20260503203929 | 25 | 360 | 4.8 | 11.3 | 0.00 | 0.00 | 0.00 | 29 | 1014.1 |
| 20260503203849 | 25 | 94 | 4.8 | 16.1 | 0.00 | 0.00 | 0.00 | 29 | 1014.1 |
| 20260503203802 | 25 | 56 | 3.2 | 16.1 | 0.00 | 0.00 | 0.00 | 29 | 1014.1 |
| 20260503203641 | 25 | 71 | 4.8 | 16.1 | 0.00 | 0.00 | 0.00 | 28 | 1014.1 |
| 20260503203542 | 26 | 85 | 4.8 | 16.1 | 0.00 | 0.00 | 0.00 | 28 | 1014.1 |
| 20260503203458 | 26 | 306 | 6.4 | 16.1 | 0.00 | 0.00 | 0.00 | 29 | 1014.1 |
| 20260503203333 | 26 | 34 | 6.4 | 16.1 | 0.00 | 0.00 | 0.00 | 28 | 1014.1 |
| 20260503203250 | 26 | 88 | 4.8 | 16.1 | 0.00 | 0.00 | 0.00 | 28 | 1014.1 |
| 20260503203133 | 26 | 282 | 8.0 | 16.1 | 0.00 | 0.00 | 0.00 | 29 | 1014.1 |
| 20260503203030 | 26 | 50 | 8.0 | 16.1 | 0.00 | 0.00 | 0.00 | 29 | 1014.1 |
| 20260503202947 | 26 | 5 | 6.4 | 14.5 | 0.00 | 0.00 | 0.00 | 28 | 1014.3 |
| 20260503202900 | 26 | 298 | 6.4 | 14.5 | 0.00 | 0.00 | 0.00 | 28 | 1014.3 |
| 20260503202742 | 26 | 330 | 6.4 | 14.5 | 0.00 | 0.00 | 0.00 | 29 | 1014.3 |
| 20260503202638 | 26 | 302 | 4.8 | 9.7 | 0.00 | 0.00 | 0.00 | 30 | 1014.3 |
| 20260503202556 | 26 | 73 | 3.2 | 8.0 | 0.00 | 0.00 | 0.00 | 31 | 1014.3 |
| 20260503202437 | 26 | 338 | 3.2 | 14.5 | 0.00 | 0.00 | 0.00 | 30 | 1014.3 |
| 20260503202351 | 25 | 263 | 3.2 | 14.5 | 0.00 | 0.00 | 0.00 | 29 | 1014.3 |
| 20260503202245 | 25 | 234 | 4.8 | 14.5 | 0.00 | 0.00 | 0.00 | 29 | 1014.3 |
| 20260503202141 | 26 | 301 | 4.8 | 14.5 | 0.00 | 0.00 | 0.00 | 28 | 1014.3 |
| 20260503202056 | 26 | 263 | 4.8 | 14.5 | 0.00 | 0.00 | 0.00 | 28 | 1014.3 |
| 20260503201947 | 26 | 288 | 4.8 | 14.5 | 0.00 | 0.00 | 0.00 | 28 | 1014.3 |
| 20260503201901 | 26 | 309 | 6.4 | 14.5 | 0.00 | 0.00 | 0.00 | 27 | 1014.3 |
| 20260503201738 | 26 | 236 | 6.4 | 14.5 | 0.00 | 0.00 | 0.00 | 29 | 1014.3 |
| 20260503201654 | 26 | 325 | 6.4 | 12.9 | 0.00 | 0.00 | 0.00 | 29 | 1014.3 |
| 20260503201549 | 26 | 335 | 4.8 | 9.7 | 0.00 | 0.00 | 0.00 | 29 | 1014.3 |
| 20260503201506 | 26 | 333 | 4.8 | 9.7 | 0.00 | 0.00 | 0.00 | 30 | 1014.4 |
| 20260503201357 | 25 | 349 | 3.2 | 12.9 | 0.00 | 0.00 | 0.00 | 30 | 1014.4 |
| 20260503201250 | 25 | 157 | 4.8 | 16.1 | 0.00 | 0.00 | 0.00 | 29 | 1014.4 |
| 20260503201151 | 25 | 57 | 4.8 | 16.1 | 0.00 | 0.00 | 0.00 | 29 | 1014.4 |
| 20260503201043 | 25 | 91 | 4.8 | 16.1 | 0.00 | 0.00 | 0.00 | 28 | 1014.4 |
| 20260503200943 | 25 | 61 | 3.2 | 16.1 | 0.00 | 0.00 | 0.00 | 29 | 1014.4 |
| 20260503200844 | 25 | 63 | 3.2 | 16.1 | 0.00 | 0.00 | 0.00 | 29 | 1014.4 |
| 20260503200738 | 25 | 51 | 4.8 | 16.1 | 0.00 | 0.00 | 0.00 | 28 | 1014.4 |
| 20260503200631 | 25 | 93 | 6.4 | 16.1 | 0.00 | 0.00 | 0.00 | 29 | 1014.4 |
| 20260503200548 | 25 | 347 | 8.0 | 16.1 | 0.00 | 0.00 | 0.00 | 28 | 1014.4 |
| 20260503200436 | 25 | 335 | 8.0 | 16.1 | 0.00 | 0.00 | 0.00 | 28 | 1014.4 |
| 20260503200353 | 25 | 244 | 4.8 | 12.9 | 0.00 | 0.00 | 0.00 | 28 | 1014.4 |
| 20260503200309 | 25 | 334 | 4.8 | 12.9 | 0.00 | 0.00 | 0.00 | 30 | 1014.4 |
| 20260503200226 | 25 | 284 | 3.2 | 12.9 | 0.00 | 0.00 | 0.00 | 30 | 1014.4 |
| 20260503200106 | 25 | 281 | 3.2 | 12.9 | 0.00 | 0.00 | 0.00 | 30 | 1014.4 |
| 20260503195943 | 25 | 24 | 6.4 | 14.5 | 0.00 | 0.00 | 0.00 | 29 | 1014.8 |
| 20260503195840 | 25 | 54 | 6.4 | 14.5 | 0.00 | 0.00 | 0.00 | 28 | 1014.8 |
| 20260503195756 | 25 | 355 | 6.4 | 14.5 | 0.00 | 0.00 | 0.00 | 29 | 1014.8 |
| 20260503195634 | 25 | 294 | 6.4 | 14.5 | 0.00 | 0.00 | 0.00 | 30 | 1014.8 |
| 20260503195547 | 25 | 306 | 4.8 | 14.5 | 0.00 | 0.00 | 0.00 | 30 | 1014.8 |
| 20260503195444 | 25 | 269 | 6.4 | 14.5 | 0.00 | 0.00 | 0.00 | 29 | 1014.8 |
| 20260503195358 | 25 | 215 | 8.0 | 16.1 | 0.00 | 0.00 | 0.00 | 30 | 1014.8 |
| 20260503195258 | 25 | 275 | 8.0 | 16.1 | 0.00 | 0.00 | 0.00 | 30 | 1014.8 |
| 20260503195142 | 25 | 312 | 6.4 | 16.1 | 0.00 | 0.00 | 0.00 | 29 | 1014.8 |
| 20260503195042 | 25 | 290 | 4.8 | 16.1 | 0.00 | 0.00 | 0.00 | 30 | 1014.8 |
| 20260503194956 | 25 | 327 | 4.8 | 16.1 | 0.00 | 0.00 | 0.00 | 29 | 1014.8 |
| 20260503194842 | 25 | 308 | 6.4 | 16.1 | 0.00 | 0.00 | 0.00 | 29 | 1014.8 |
| 20260503194755 | 25 | 326 | 8.0 | 16.1 | 0.00 | 0.00 | 0.00 | 29 | 1014.8 |
| 20260503194647 | 25 | 269 | 8.0 | 16.1 | 0.00 | 0.00 | 0.00 | 29 | 1014.8 |
| 20260503194541 | 25 | 339 | 8.0 | 16.1 | 0.00 | 0.00 | 0.00 | 29 | 1014.8 |
| 20260503194434 | 25 | 336 | 6.4 | 14.5 | 0.00 | 0.00 | 0.00 | 30 | 1015.2 |
| 20260503194349 | 25 | 5 | 9.7 | 14.5 | 0.00 | 0.00 | 0.00 | 29 | 1015.2 |
| 20260503194243 | 25 | 111 | 6.4 | 14.5 | 0.00 | 0.00 | 0.00 | 29 | 1015.2 |
| 20260503194140 | 25 | 20 | 4.8 | 12.9 | 0.00 | 0.00 | 0.00 | 30 | 1015.2 |
| 20260503194055 | 25 | 65 | 6.4 | 12.9 | 0.00 | 0.00 | 0.00 | 29 | 1015.2 |
| 20260503193937 | 25 | 49 | 8.0 | 12.9 | 0.00 | 0.00 | 0.00 | 29 | 1015.2 |
| 20260503193850 | 25 | 36 | 8.0 | 11.3 | 0.00 | 0.00 | 0.00 | 29 | 1015.2 |
| 20260503193743 | 25 | 53 | 6.4 | 14.5 | 0.00 | 0.00 | 0.00 | 29 | 1015.2 |
| 20260503193630 | 25 | 288 | 6.4 | 14.5 | 0.00 | 0.00 | 0.00 | 28 | 1015.2 |
| 20260503193549 | 25 | 319 | 8.0 | 14.5 | 0.00 | 0.00 | 0.00 | 28 | 1015.2 |
| 20260503193442 | 25 | 302 | 6.4 | 14.5 | 0.00 | 0.00 | 0.00 | 29 | 1015.2 |
| 20260503193343 | 25 | 347 | 4.8 | 14.5 | 0.00 | 0.00 | 0.00 | 29 | 1015.2 |
| 20260503193246 | 25 | 313 | 6.4 | 14.5 | 0.00 | 0.00 | 0.00 | 29 | 1015.2 |
| 20260503193142 | 26 | 11 | 4.8 | 14.5 | 0.00 | 0.00 | 0.00 | 29 | 1015.2 |
| 20260503193039 | 26 | 221 | 6.4 | 14.5 | 0.00 | 0.00 | 0.00 | 30 | 1015.2 |
| 20260503192956 | 26 | 323 | 6.4 | 16.1 | 0.00 | 0.00 | 0.00 | 29 | 1015.3 |
| 20260503192841 | 26 | 26 | 6.4 | 16.1 | 0.00 | 0.00 | 0.00 | 31 | 1015.3 |
| 20260503192739 | 26 | 331 | 4.8 | 20.9 | 0.00 | 0.00 | 0.00 | 30 | 1015.3 |
| 20260503192656 | 26 | 351 | 3.2 | 20.9 | 0.00 | 0.00 | 0.00 | 30 | 1015.3 |
| 20260503192552 | 25 | 32 | 3.2 | 20.9 | 0.00 | 0.00 | 0.00 | 30 | 1015.3 |
| 20260503192434 | 25 | 43 | 3.2 | 20.9 | 0.00 | 0.00 | 0.00 | 30 | 1015.3 |
| 20260503192349 | 25 | 349 | 6.4 | 20.9 | 0.00 | 0.00 | 0.00 | 30 | 1015.3 |
| 20260503192305 | 25 | 351 | 9.7 | 20.9 | 0.00 | 0.00 | 0.00 | 30 | 1015.3 |
| 20260503192139 | 25 | 69 | 11.3 | 20.9 | 0.00 | 0.00 | 0.00 | 30 | 1015.3 |
| 20260503192052 | 25 | 50 | 11.3 | 20.9 | 0.00 | 0.00 | 0.00 | 30 | 1015.3 |
| 20260503191952 | 25 | 23 | 11.3 | 20.9 | 0.00 | 0.00 | 0.00 | 30 | 1015.3 |
| 20260503191906 | 25 | 20 | 9.7 | 17.7 | 0.00 | 0.00 | 0.00 | 29 | 1015.3 |
| 20260503191743 | 25 | 60 | 6.4 | 17.7 | 0.00 | 0.00 | 0.00 | 30 | 1015.3 |
| 20260503191641 | 25 | 40 | 3.2 | 9.7 | 0.00 | 0.00 | 0.00 | 29 | 1015.3 |
| 20260503191558 | 25 | 347 | 3.2 | 9.7 | 0.00 | 0.00 | 0.00 | 29 | 1015.3 |
| 20260503191435 | 25 | 72 | 3.2 | 9.7 | 0.00 | 0.00 | 0.00 | 32 | 1015.7 |
| 20260503191332 | 24 | 61 | 4.8 | 9.7 | 0.00 | 0.00 | 0.00 | 32 | 1015.7 |
| 20260503191249 | 24 | 306 | 3.2 | 9.7 | 0.00 | 0.00 | 0.00 | 32 | 1015.7 |
| 20260503191135 | 24 | 5 | 3.2 | 9.7 | 0.00 | 0.00 | 0.00 | 30 | 1015.7 |
| 20260503191052 | 24 | 5 | 6.4 | 9.7 | 0.00 | 0.00 | 0.00 | 30 | 1015.7 |
| 20260503191006 | 24 | 265 | 6.4 | 9.7 | 0.00 | 0.00 | 0.00 | 30 | 1015.7 |
| 20260503190923 | 24 | 279 | 3.2 | 9.7 | 0.00 | 0.00 | 0.00 | 30 | 1015.7 |
| 20260503190743 | 24 | 346 | 4.8 | 9.7 | 0.00 | 0.00 | 0.00 | 31 | 1015.7 |
| 20260503190643 | 25 | 300 | 4.8 | 9.7 | 0.00 | 0.00 | 0.00 | 32 | 1015.7 |
| 20260503190556 | 24 | 22 | 4.8 | 14.5 | 0.00 | 0.00 | 0.00 | 32 | 1015.7 |
| 20260503190510 | 24 | 20 | 4.8 | 14.5 | 0.00 | 0.00 | 0.00 | 31 | 1015.7 |
| 20260503190423 | 24 | 314 | 4.8 | 14.5 | 0.00 | 0.00 | 0.00 | 32 | 1015.7 |
| 20260503190319 | 25 | 257 | 4.8 | 14.5 | 0.00 | 0.00 | 0.00 | 32 | 1015.7 |
| 20260503190204 | 25 | 284 | 6.4 | 16.1 | 0.00 | 0.00 | 0.00 | 31 | 1015.7 |
| 20260503190039 | 25 | 240 | 6.4 | 16.1 | 0.00 | 0.00 | 0.00 | 31 | 1015.7 |
| 20260503185952 | 25 | 296 | 6.4 | 16.1 | 0.00 | 0.00 | 0.00 | 30 | 1015.9 |
| 20260503185847 | 25 | 19 | 8.0 | 16.1 | 0.00 | 0.00 | 0.00 | 29 | 1015.9 |
| 20260503185742 | 25 | 44 | 6.4 | 16.1 | 0.00 | 0.00 | 0.00 | 30 | 1015.9 |
| 20260503185641 | 25 | 355 | 4.8 | 16.1 | 0.00 | 0.00 | 0.00 | 31 | 1015.9 |
| 20260503185533 | 25 | 17 | 8.0 | 16.1 | 0.00 | 0.00 | 0.00 | 30 | 1015.9 |
| 20260503185429 | 24 | 22 | 8.0 | 16.1 | 0.00 | 0.00 | 0.00 | 31 | 1015.9 |
| 20260503185347 | 24 | 63 | 6.4 | 14.5 | 0.00 | 0.00 | 0.00 | 31 | 1015.9 |
| 20260503185247 | 24 | 339 | 4.8 | 12.9 | 0.00 | 0.00 | 0.00 | 29 | 1015.9 |
| 20260503185200 | 24 | 271 | 4.8 | 12.9 | 0.00 | 0.00 | 0.00 | 29 | 1015.9 |
| 20260503185102 | 24 | 296 | 4.8 | 12.9 | 0.00 | 0.00 | 0.00 | 30 | 1015.9 |
| 20260503184941 | 25 | 265 | 3.2 | 16.1 | 0.00 | 0.00 | 0.00 | 29 | 1015.9 |
| 20260503184838 | 25 | 312 | 3.2 | 16.1 | 0.00 | 0.00 | 0.00 | 29 | 1015.9 |
| 20260503184752 | 25 | 290 | 3.2 | 16.1 | 0.00 | 0.00 | 0.00 | 29 | 1015.9 |
| 20260503184634 | 25 | 308 | 4.8 | 20.9 | 0.00 | 0.00 | 0.00 | 29 | 1015.9 |
| 20260503184548 | 25 | 262 | 4.8 | 20.9 | 0.00 | 0.00 | 0.00 | 28 | 1015.9 |
| 20260503184444 | 25 | 326 | 4.8 | 20.9 | 0.00 | 0.00 | 0.00 | 29 | 1016.2 |
| 20260503184337 | 25 | 244 | 4.8 | 20.9 | 0.00 | 0.00 | 0.00 | 30 | 1016.2 |
| 20260503184250 | 25 | 26 | 6.4 | 20.9 | 0.00 | 0.00 | 0.00 | 30 | 1016.2 |
| 20260503184203 | 25 | 344 | 8.0 | 20.9 | 0.00 | 0.00 | 0.00 | 29 | 1016.2 |
| 20260503184055 | 25 | 355 | 8.0 | 20.9 | 0.00 | 0.00 | 0.00 | 28 | 1016.2 |
| 20260503184009 | 25 | 273 | 8.0 | 20.9 | 0.00 | 0.00 | 0.00 | 28 | 1016.2 |
| 20260503183900 | 25 | 80 | 9.7 | 20.9 | 0.00 | 0.00 | 0.00 | 28 | 1016.2 |
| 20260503183753 | 25 | 72 | 8.0 | 20.9 | 0.00 | 0.00 | 0.00 | 27 | 1016.2 |
| 20260503183706 | 25 | 42 | 6.4 | 16.1 | 0.00 | 0.00 | 0.00 | 28 | 1016.2 |
| 20260503183619 | 25 | 19 | 6.4 | 16.1 | 0.00 | 0.00 | 0.00 | 30 | 1016.2 |
| 20260503183439 | 25 | 316 | 9.7 | 16.1 | 0.00 | 0.00 | 0.00 | 31 | 1016.2 |
| 20260503183340 | 25 | 171 | 8.0 | 16.1 | 0.00 | 0.00 | 0.00 | 30 | 1016.2 |
| 20260503183254 | 25 | 46 | 6.4 | 16.1 | 0.00 | 0.00 | 0.00 | 30 | 1016.2 |
| 20260503183206 | 25 | 71 | 4.8 | 16.1 | 0.00 | 0.00 | 0.00 | 30 | 1016.2 |
| 20260503183120 | 25 | 98 | 6.4 | 16.1 | 0.00 | 0.00 | 0.00 | 31 | 1016.2 |
| 20260503183007 | 24 | 85 | 6.4 | 16.1 | 0.00 | 0.00 | 0.00 | 30 | 1016.3 |
| 20260503182906 | 24 | 61 | 8.0 | 16.1 | 0.00 | 0.00 | 0.00 | 31 | 1016.3 |
| 20260503182746 | 25 | 346 | 11.3 | 16.1 | 0.00 | 0.00 | 0.00 | 30 | 1016.3 |
| 20260503182638 | 25 | 44 | 8.0 | 16.1 | 0.00 | 0.00 | 0.00 | 29 | 1016.3 |
| 20260503182551 | 25 | 5 | 6.4 | 16.1 | 0.00 | 0.00 | 0.00 | 31 | 1016.3 |
| 20260503182507 | 25 | 86 | 8.0 | 16.1 | 0.00 | 0.00 | 0.00 | 31 | 1016.3 |
| 20260503182404 | 25 | 28 | 8.0 | 16.1 | 0.00 | 0.00 | 0.00 | 30 | 1016.3 |
| 20260503182301 | 25 | 44 | 4.8 | 16.1 | 0.00 | 0.00 | 0.00 | 30 | 1016.3 |
| 20260503182139 | 24 | 329 | 4.8 | 16.1 | 0.00 | 0.00 | 0.00 | 30 | 1016.3 |
| 20260503182035 | 24 | 293 | 4.8 | 16.1 | 0.00 | 0.00 | 0.00 | 30 | 1016.3 |
| 20260503181949 | 24 | 182 | 3.2 | 16.1 | 0.00 | 0.00 | 0.00 | 30 | 1016.3 |
| 20260503181901 | 24 | 113 | 6.4 | 16.1 | 0.00 | 0.00 | 0.00 | 30 | 1016.3 |
| 20260503181744 | 24 | 15 | 11.3 | 16.1 | 0.00 | 0.00 | 0.00 | 29 | 1016.3 |
| 20260503181638 | 24 | 53 | 9.7 | 16.1 | 0.00 | 0.00 | 0.00 | 29 | 1016.3 |
| 20260503181536 | 24 | 332 | 6.4 | 12.9 | 0.00 | 0.00 | 0.00 | 29 | 1016.3 |
| 20260503181440 | 24 | 28 | 4.8 | 9.7 | 0.00 | 0.00 | 0.00 | 30 | 1016.3 |
| 20260503181338 | 24 | 212 | 4.8 | 17.7 | 0.00 | 0.00 | 0.00 | 29 | 1016.3 |
| 20260503181234 | 24 | 342 | 4.8 | 19.3 | 0.00 | 0.00 | 0.00 | 29 | 1016.3 |
| 20260503181148 | 24 | 301 | 6.4 | 19.3 | 0.00 | 0.00 | 0.00 | 28 | 1016.3 |
| 20260503181101 | 24 | 323 | 6.4 | 19.3 | 0.00 | 0.00 | 0.00 | 28 | 1016.3 |
| 20260503180940 | 24 | 351 | 4.8 | 19.3 | 0.00 | 0.00 | 0.00 | 29 | 1016.3 |
| 20260503180833 | 24 | 248 | 4.8 | 19.3 | 0.00 | 0.00 | 0.00 | 28 | 1016.3 |
| 20260503180732 | 24 | 90 | 6.4 | 19.3 | 0.00 | 0.00 | 0.00 | 29 | 1016.3 |
| 20260503180635 | 24 | 292 | 9.7 | 19.3 | 0.00 | 0.00 | 0.00 | 29 | 1016.3 |
| 20260503180551 | 24 | 33 | 12.9 | 19.3 | 0.00 | 0.00 | 0.00 | 29 | 1016.3 |
| 20260503180505 | 24 | 285 | 11.3 | 20.9 | 0.00 | 0.00 | 0.00 | 28 | 1016.3 |
| 20260503180401 | 24 | 58 | 8.0 | 17.7 | 0.00 | 0.00 | 0.00 | 29 | 1016.3 |
| 20260503180237 | 23 | 98 | 8.0 | 17.7 | 0.00 | 0.00 | 0.00 | 29 | 1016.3 |
| 20260503180154 | 23 | 19 | 9.7 | 20.9 | 0.00 | 0.00 | 0.00 | 28 | 1016.3 |
| 20260503180032 | 24 | 82 | 9.7 | 22.5 | 0.00 | 0.00 | 0.00 | 28 | 1016.3 |
| 20260503175948 | 24 | 62 | 11.3 | 22.5 | 0.00 | 0.00 | 0.00 | 29 | 1016.3 |
| 20260503175902 | 23 | 119 | 11.3 | 22.5 | 0.00 | 0.00 | 0.00 | 28 | 1016.3 |
| 20260503175740 | 23 | 51 | 9.7 | 22.5 | 0.00 | 0.00 | 0.00 | 28 | 1016.3 |
| 20260503175656 | 23 | 343 | 9.7 | 22.5 | 0.00 | 0.00 | 0.00 | 28 | 1016.3 |
| 20260503175544 | 24 | 64 | 11.3 | 22.5 | 0.00 | 0.00 | 0.00 | 27 | 1016.3 |
| 20260503175501 | 24 | 13 | 12.9 | 22.5 | 0.00 | 0.00 | 0.00 | 28 | 1016.3 |
| 20260503175333 | 24 | 53 | 9.7 | 25.7 | 0.00 | 0.00 | 0.00 | 28 | 1016.3 |
| 20260503175246 | 24 | 54 | 6.4 | 25.7 | 0.00 | 0.00 | 0.00 | 29 | 1016.3 |
| 20260503175133 | 23 | 73 | 6.4 | 25.7 | 0.00 | 0.00 | 0.00 | 28 | 1016.3 |
| 20260503175029 | 23 | 60 | 9.7 | 25.7 | 0.00 | 0.00 | 0.00 | 28 | 1016.3 |
| 20260503174946 | 23 | 41 | 8.0 | 25.7 | 0.00 | 0.00 | 0.00 | 28 | 1016.3 |
| 20260503174834 | 23 | 55 | 11.3 | 25.7 | 0.00 | 0.00 | 0.00 | 27 | 1016.3 |
| 20260503174730 | 24 | 67 | 14.5 | 25.7 | 0.00 | 0.00 | 0.00 | 27 | 1016.3 |
| 20260503174647 | 24 | 44 | 14.5 | 25.7 | 0.00 | 0.00 | 0.00 | 28 | 1016.3 |
| 20260503174530 | 24 | 51 | 14.5 | 25.7 | 0.00 | 0.00 | 0.00 | 27 | 1016.3 |
| 20260503174449 | 24 | 67 | 12.9 | 24.1 | 0.00 | 0.00 | 0.00 | 28 | 1016.4 |
| 20260503174334 | 24 | 24 | 9.7 | 20.9 | 0.00 | 0.00 | 0.00 | 28 | 1016.4 |
| 20260503174250 | 24 | 63 | 8.0 | 16.1 | 0.00 | 0.00 | 0.00 | 28 | 1016.4 |
| 20260503174204 | 24 | 5 | 8.0 | 16.1 | 0.00 | 0.00 | 0.00 | 28 | 1016.4 |
| 20260503174030 | 24 | 38 | 4.8 | 16.1 | 0.00 | 0.00 | 0.00 | 29 | 1016.4 |
| 20260503173947 | 24 | 100 | 4.8 | 16.1 | 0.00 | 0.00 | 0.00 | 30 | 1016.4 |
| 20260503173844 | 24 | 100 | 6.4 | 16.1 | 0.00 | 0.00 | 0.00 | 30 | 1016.4 |
| 20260503173758 | 24 | 29 | 6.4 | 16.1 | 0.00 | 0.00 | 0.00 | 29 | 1016.4 |
| 20260503173634 | 24 | 59 | 6.4 | 24.1 | 0.00 | 0.00 | 0.00 | 28 | 1016.4 |
| 20260503173533 | 24 | 71 | 6.4 | 24.1 | 0.00 | 0.00 | 0.00 | 28 | 1016.4 |
| 20260503173449 | 24 | 84 | 6.4 | 24.1 | 0.00 | 0.00 | 0.00 | 29 | 1016.4 |
| 20260503173335 | 24 | 65 | 6.4 | 24.1 | 0.00 | 0.00 | 0.00 | 30 | 1016.4 |
| 20260503173233 | 23 | 23 | 9.7 | 24.1 | 0.00 | 0.00 | 0.00 | 29 | 1016.4 |
| 20260503173146 | 23 | 59 | 9.7 | 24.1 | 0.00 | 0.00 | 0.00 | 29 | 1016.4 |
| 20260503173045 | 23 | 48 | 9.7 | 24.1 | 0.00 | 0.00 | 0.00 | 28 | 1016.4 |
| 20260503172957 | 23 | 28 | 11.3 | 24.1 | 0.00 | 0.00 | 0.00 | 28 | 1016.8 |
| 20260503172911 | 23 | 50 | 8.0 | 24.1 | 0.00 | 0.00 | 0.00 | 28 | 1016.8 |
| 20260503172732 | 23 | 76 | 8.0 | 22.5 | 0.00 | 0.00 | 0.00 | 28 | 1016.8 |
| 20260503172649 | 23 | 28 | 11.3 | 22.5 | 0.00 | 0.00 | 0.00 | 28 | 1016.8 |
| 20260503172601 | 23 | 70 | 9.7 | 22.5 | 0.00 | 0.00 | 0.00 | 28 | 1016.8 |
| 20260503172457 | 23 | 51 | 9.7 | 22.5 | 0.00 | 0.00 | 0.00 | 28 | 1016.8 |
| 20260503172358 | 23 | 86 | 9.7 | 22.5 | 0.00 | 0.00 | 0.00 | 28 | 1016.8 |
| 20260503172240 | 23 | 56 | 12.9 | 22.5 | 0.00 | 0.00 | 0.00 | 29 | 1016.8 |
| 20260503172137 | 23 | 62 | 12.9 | 22.5 | 0.00 | 0.00 | 0.00 | 29 | 1016.8 |
| 20260503172049 | 23 | 40 | 12.9 | 22.5 | 0.00 | 0.00 | 0.00 | 30 | 1016.8 |
| 20260503171938 | 23 | 50 | 12.9 | 22.5 | 0.00 | 0.00 | 0.00 | 29 | 1016.8 |
| 20260503171851 | 23 | 34 | 12.9 | 22.5 | 0.00 | 0.00 | 0.00 | 29 | 1016.8 |
| 20260503171747 | 23 | 37 | 9.7 | 22.5 | 0.00 | 0.00 | 0.00 | 28 | 1016.8 |
| 20260503171642 | 23 | 20 | 9.7 | 22.5 | 0.00 | 0.00 | 0.00 | 30 | 1016.8 |
| 20260503171555 | 23 | 53 | 11.3 | 22.5 | 0.00 | 0.00 | 0.00 | 29 | 1016.8 |
| 20260503171437 | 23 | 57 | 11.3 | 22.5 | 0.00 | 0.00 | 0.00 | 27 | 1016.8 |
| 20260503171330 | 23 | 5 | 11.3 | 25.7 | 0.00 | 0.00 | 0.00 | 28 | 1016.8 |
| 20260503171246 | 23 | 348 | 9.7 | 25.7 | 0.00 | 0.00 | 0.00 | 28 | 1016.8 |
| 20260503171200 | 23 | 64 | 9.7 | 25.7 | 0.00 | 0.00 | 0.00 | 29 | 1016.8 |
| 20260503171114 | 23 | 360 | 6.4 | 25.7 | 0.00 | 0.00 | 0.00 | 29 | 1016.8 |
| 20260503171009 | 23 | 107 | 8.0 | 25.7 | 0.00 | 0.00 | 0.00 | 29 | 1016.8 |
| 20260503170844 | 23 | 5 | 11.3 | 25.7 | 0.00 | 0.00 | 0.00 | 28 | 1016.8 |
| 20260503170737 | 23 | 5 | 9.7 | 25.7 | 0.00 | 0.00 | 0.00 | 28 | 1016.8 |
| 20260503170639 | 23 | 35 | 11.3 | 25.7 | 0.00 | 0.00 | 0.00 | 28 | 1016.8 |
| 20260503170552 | 23 | 55 | 16.1 | 25.7 | 0.00 | 0.00 | 0.00 | 28 | 1016.8 |
| 20260503170436 | 23 | 31 | 11.3 | 25.7 | 0.00 | 0.00 | 0.00 | 28 | 1016.8 |
| 20260503170333 | 23 | 27 | 6.4 | 24.1 | 0.00 | 0.00 | 0.00 | 29 | 1016.8 |
| 20260503170250 | 23 | 24 | 9.7 | 24.1 | 0.00 | 0.00 | 0.00 | 29 | 1016.8 |
| 20260503170132 | 23 | 65 | 11.3 | 24.1 | 0.00 | 0.00 | 0.00 | 29 | 1016.8 |
| 20260503160138 | 22 | 65 | 9.7 | 22.5 | 0.00 | 0.00 | 0.00 | 32 | 1017.6 |
| 20260503150933 | 21 | 51 | 8.0 | 16.1 | 0.00 | 0.00 | 0.00 | 42 | 1017.9 |
| 20260503150811 | 21 | 27 | 8.0 | 12.9 | 0.00 | 0.00 | 0.00 | 42 | 1017.9 |
| 20260503150703 | 21 | 22 | 8.0 | 12.9 | 0.00 | 0.00 | 0.00 | 42 | 1017.9 |
| 20260503150556 | 21 | 65 | 8.0 | 12.9 | 0.00 | 0.00 | 0.00 | 41 | 1017.9 |
| 20260503150444 | 21 | 58 | 8.0 | 17.7 | 0.00 | 0.00 | 0.00 | 42 | 1017.9 |
| 20260503150357 | 21 | 29 | 6.4 | 17.7 | 0.00 | 0.00 | 0.00 | 43 | 1017.9 |
| 20260503150312 | 21 | 5 | 8.0 | 17.7 | 0.00 | 0.00 | 0.00 | 43 | 1017.9 |
| 20260503150145 | 21 | 5 | 6.4 | 17.7 | 0.00 | 0.00 | 0.00 | 43 | 1017.9 |
| 20260503140246 | 19 | 72 | 6.4 | 12.9 | 0.00 | 0.00 | 0.00 | 48 | 1017.6 |
| 20260503140143 | 19 | 41 | 8.0 | 12.9 | 0.00 | 0.00 | 0.00 | 48 | 1017.6 |
| 20260503131401 | 17 | 56 | 3.2 | 11.3 | 0.00 | 0.05 | 0.00 | 56 | 1016.9 |
| 20260503131237 | 16 | 12 | 4.8 | 14.5 | 0.00 | 0.05 | 0.00 | 56 | 1016.9 |
| 20260503131151 | 16 | 292 | 6.4 | 14.5 | 0.00 | 0.05 | 0.00 | 56 | 1016.9 |
| 20260503131047 | 16 | 9 | 4.8 | 14.5 | 0.00 | 0.05 | 0.00 | 56 | 1016.9 |
| 20260503130933 | 16 | 28 | 4.8 | 14.5 | 0.00 | 0.05 | 0.00 | 57 | 1016.9 |
| 20260503130845 | 16 | 332 | 4.8 | 14.5 | 0.00 | 0.05 | 0.00 | 57 | 1016.9 |
| 20260503130742 | 16 | 59 | 6.4 | 14.5 | 0.00 | 0.05 | 0.00 | 57 | 1016.9 |
| 20260503130700 | 16 | 43 | 8.0 | 14.5 | 0.00 | 0.05 | 0.00 | 57 | 1016.9 |
| 20260503130553 | 16 | 27 | 8.0 | 14.5 | 0.00 | 0.05 | 0.00 | 57 | 1016.9 |
| 20260503130448 | 16 | 36 | 8.0 | 14.5 | 0.00 | 0.05 | 0.00 | 57 | 1016.9 |
| 20260503130402 | 16 | 54 | 6.4 | 14.5 | 0.00 | 0.05 | 0.00 | 58 | 1016.9 |
| 20260503130314 | 16 | 72 | 8.0 | 14.5 | 0.00 | 0.05 | 0.00 | 58 | 1016.9 |
| 20260503130132 | 16 | 5 | 8.0 | 14.5 | 0.00 | 0.05 | 0.00 | 59 | 1016.9 |
| 20260503120131 | 11 | 5 | 1.6 | 4.8 | 0.00 | 0.08 | 0.00 | 78 | 1016.7 |
| 20260503110739 | 10 | 5 | 0.0 | 1.6 | 0.00 | 0.25 | 0.00 | 78 | 1016.3 |
| 20260503110645 | 10 | 5 | 0.0 | 1.6 | 0.00 | 0.25 | 0.00 | 78 | 1016.3 |
| 20260503110601 | 10 | 5 | 0.0 | 1.6 | 0.00 | 0.25 | 0.00 | 78 | 1016.3 |
| 20260503110440 | 10 | 5 | 0.0 | 1.6 | 0.00 | 0.25 | 0.00 | 78 | 1016.3 |
| 20260503110335 | 10 | 5 | 0.0 | 1.6 | 0.00 | 0.25 | 0.00 | 78 | 1016.3 |
| 20260503110252 | 10 | 5 | 0.0 | 1.6 | 0.00 | 0.25 | 0.00 | 78 | 1016.3 |
| 20260503110137 | 10 | 5 | 0.0 | 1.6 | 0.00 | 0.25 | 0.00 | 78 | 1016.3 |
| 20260503100241 | 11 | 325 | 0.0 | 1.6 | 0.00 | 0.43 | 0.00 | 77 | 1015.8 |
| 20260503100137 | 11 | 325 | 0.0 | 1.6 | 0.00 | 0.43 | 0.00 | 78 | 1015.8 |
| 20260503090439 | 11 | 325 | 0.0 | 1.6 | 0.00 | 0.79 | 0.00 | 75 | 1015.5 |
| 20260503090336 | 11 | 325 | 0.0 | 1.6 | 0.00 | 0.79 | 0.00 | 75 | 1015.5 |
| 20260503090250 | 11 | 325 | 0.0 | 1.6 | 0.00 | 0.79 | 0.00 | 75 | 1015.5 |
| 20260503090204 | 11 | 325 | 0.0 | 1.6 | 0.00 | 0.79 | 0.00 | 75 | 1015.5 |
| 20260503081614 | 12 | 325 | 0.0 | 1.6 | 0.00 | 1.47 | 0.00 | 72 | 1015.3 |
| 20260503081507 | 12 | 325 | 0.0 | 1.6 | 0.00 | 1.47 | 0.00 | 72 | 1015.1 |
| 20260503081404 | 12 | 325 | 1.6 | 1.6 | 0.00 | 1.47 | 0.00 | 72 | 1015.1 |
| 20260503081251 | 12 | 325 | 1.6 | 1.6 | 0.00 | 1.47 | 0.00 | 72 | 1015.1 |
| 20260503081145 | 12 | 325 | 1.6 | 1.6 | 0.00 | 1.47 | 0.00 | 72 | 1015.1 |
| 20260503081039 | 12 | 325 | 0.0 | 1.6 | 0.00 | 1.47 | 0.00 | 72 | 1015.1 |
| 20260503080943 | 12 | 325 | 0.0 | 1.6 | 0.00 | 1.47 | 0.00 | 72 | 1015.1 |
| 20260503080839 | 12 | 325 | 0.0 | 1.6 | 0.00 | 1.47 | 0.00 | 72 | 1015.1 |